GFSSGP_500_spd_000.txt.gz
Wind_Speed
28 28 23 16 12 5 13 7 28 23 34 29 31 24 22 24 30 28 26 27 16 16 19 23 26 27 28 27 28 26 29 24 33 31 31 38 40 41 40 40 37 34 34 38 39 42 38 35 36
25 20 16 5 1 13 11 24 22 31 36 24 15 16 28 30 26 27 29 24 26 23 24 27 30 33 35 35 34 33 32 30 31 34 34 42 44 44 44 45 47 46 19 13 23 28 35 39 39
14 9 5 5 15 9 17 21 26 38 21 19 18 21 19 6 19 27 29 27 29 28 30 33 33 34 34 35 36 38 36 36 30 30 33 36 41 40 44 42 47 45 40 33 29 30 24 34 38
2 3 8 18 6 20 28 34 28 23 20 17 15 19 25 30 23 25 26 29 31 33 33 36 37 40 41 41 40 40 39 34 35 28 30 34 37 35 42 42 40 37 33 34 43 40 34 30 35
7 5 9 0 19 26 24 27 25 14 15 16 16 24 25 19 24 25 28 31 34 35 37 37 38 38 39 40 39 40 38 34 34 34 37 39 42 39 39 43 41 39 38 41 41 42 54 19 20
13 25 11 10 12 11 9 12 20 22 20 13 22 25 23 19 21 25 28 30 30 30 32 34 35 36 34 31 28 28 30 31 32 34 36 37 39 41 35 37 38 38 37 37 41 37 40 45 34
17 13 7 7 19 13 10 11 15 16 16 11 20 27 22 12 29 25 26 27 30 32 33 34 34 32 30 29 28 27 26 26 27 30 31 33 35 37 37 36 38 37 36 38 40 37 37 37 33
15 10 8 3 3 16 8 11 12 14 13 11 14 19 19 13 18 21 24 24 23 23 24 26 25 21 23 25 26 26 26 26 27 29 29 29 31 34 36 37 39 39 40 40 39 39 41 38 40
23 13 7 5 4 11 9 10 9 12 14 12 11 17 21 22 20 20 20 21 20 21 22 24 25 23 24 27 24 25 26 26 28 29 30 32 36 40 40 39 41 44 45 46 47 46 45 45 41
19 7 12 7 7 10 12 8 11 11 15 17 12 17 19 22 21 20 20 22 19 21 23 25 25 25 25 25 25 24 26 29 30 32 33 34 36 38 39 40 41 43 45 47 49 49 45 44 47
12 10 5 4 5 5 6 7 7 8 11 11 12 7 8 9 10 12 14 15 13 14 14 14 16 15 15 15 14 13 14 16 18 21 23 24 25 27 28 30 28 27 31 32 31 34 37 42 47
23 18 20 18 15 13 13 12 11 11 12 13 14 12 12 12 12 11 10 11 12 12 11 11 12 12 13 15 15 15 17 17 18 20 21 23 25 27 30 32 33 32 32 33 37 33 34 37 39
14 13 10 9 8 8 7 6 6 7 8 10 11 11 11 11 10 10 11 13 13 12 12 12 13 15 17 18 19 20 22 23 25 27 28 29 31 35 36 36 36 37 36 34 33 33 33 34 35
10 8 7 5 5 6 7 8 9 8 9 10 10 10 10 11 12 11 12 13 15 15 14 16 16 19 20 21 25 26 27 30 31 32 34 35 35 36 38 40 41 40 41 40 39 37 35 34 34
8 5 4 6 7 8 9 8 7 12 11 12 13 13 14 15 15 15 14 15 17 17 17 18 19 21 23 24 27 29 31 35 36 37 39 41 42 44 44 44 44 46 45 45 45 44 43 41 39
9 10 10 15 13 10 10 12 13 15 13 11 11 12 14 17 17 16 15 18 18 20 20 22 24 24 27 29 33 34 34 38 39 41 43 46 48 50 52 52 51 51 49 47 47 48 48 47 44
14 13 11 12 14 12 12 12 12 15 17 18 16 16 14 12 12 14 18 18 21 21 22 22 23 25 26 29 32 34 36 40 43 45 45 46 49 51 53 54 55 55 54 52 50 50 49 48 48
9 10 12 12 13 15 13 11 9 11 17 19 18 18 15 14 19 15 16 21 21 23 24 26 28 30 31 33 35 38 39 44 45 48 51 50 54 56 59 61 59 58 59 58 58 57 55 51 50
5 6 6 8 10 13 15 13 12 13 16 14 12 16 16 17 18 22 20 21 24 27 29 31 34 34 35 39 41 44 46 48 50 52 55 54 57 59 64 70 71 71 67 62 61 60 60 59 56
7 6 6 9 11 11 15 16 14 15 17 15 15 16 18 19 19 21 25 26 30 33 36 38 41 43 43 45 49 50 52 54 57 59 62 62 62 62 67 67 67 69 70 71 69 66 62 59 58
12 9 8 9 11 14 12 19 23 18 18 17 18 21 21 22 24 24 25 28 32 35 38 42 45 49 51 51 55 56 56 58 60 64 66 67 68 70 69 67 67 68 68 66 68 68 67 62 59
15 14 13 12 15 15 17 12 18 28 21 20 21 22 26 28 27 29 30 34 40 40 41 44 48 49 51 54 54 57 60 60 62 65 68 71 73 74 75 71 69 68 65 64 64 64 63 63 63
15 17 17 16 16 16 18 19 18 25 29 28 30 30 31 35 36 38 39 41 43 44 47 47 51 50 52 56 58 59 60 61 64 68 72 75 74 72 71 68 65 62 63 63 64 62 61 61 62
16 16 20 21 21 19 20 19 13 17 29 34 36 41 43 41 38 38 41 42 45 50 52 52 54 53 54 57 59 61 61 63 68 71 73 72 68 67 65 62 61 58 59 61 62 62 61 59 59
16 20 21 22 23 23 27 30 28 21 29 32 42 46 46 45 47 43 46 49 51 55 55 58 58 58 57 58 59 61 64 66 70 71 72 72 68 63 61 60 59 60 65 63 60 60 58 56 55
19 24 26 28 29 28 24 32 26 33 36 45 51 50 58 57 59 56 56 56 57 59 58 57 61 64 64 64 63 66 65 68 70 70 72 66 62 60 59 57 58 60 64 65 63 60 58 56 52
24 26 29 33 34 38 36 36 32 28 34 46 47 55 61 60 60 60 60 64 64 60 63 66 63 63 63 64 66 66 69 71 73 72 68 62 62 62 58 56 56 62 65 65 63 60 55 52 50
25 29 32 37 40 44 42 38 34 34 37 39 42 47 55 59 61 63 65 67 66 64 68 67 66 64 64 65 65 67 71 75 72 68 64 63 62 60 57 56 62 64 67 64 59 56 54 54 52
31 31 35 38 39 45 48 43 40 36 41 45 51 55 58 63 66 65 65 67 67 67 66 66 66 63 61 64 69 71 72 71 67 65 63 61 59 57 56 59 61 63 60 59 57 57 58 61 64
33 32 34 41 44 44 45 45 35 41 48 53 54 59 62 62 63 63 63 67 66 65 64 64 63 63 67 70 73 72 74 73 66 62 60 58 56 53 54 57 57 57 58 60 60 63 68 72 74

GFSSGP_500_spd_003.txt.gz
Wind_Speed
27 25 18 11 4 8 15 11 13 21 26 34 38 29 30 30 32 25 22 25 25 20 17 18 21 24 23 24 24 27 26 26 26 28 28 32 34 35 35 40 40 44 50 33 31 46 50 48 46
19 10 3 8 16 11 9 16 20 24 27 26 27 31 30 28 23 28 23 27 30 25 17 22 24 24 27 28 31 33 35 33 32 32 32 31 36 35 33 34 39 43 47 42 35 22 36 30 41
8 6 9 21 16 12 19 21 25 25 29 30 31 30 26 20 19 23 25 24 23 24 23 25 28 32 32 33 33 35 37 39 40 38 35 31 33 34 29 35 33 32 34 30 26 29 27 34 29
6 9 21 7 4 10 14 17 24 26 26 25 28 27 23 20 18 17 26 28 29 31 30 29 30 33 35 38 41 44 42 40 38 36 37 36 32 30 36 35 34 32 35 34 30 32 33 34 37
12 17 11 4 6 12 16 18 22 27 29 24 17 22 23 25 17 18 24 25 27 28 30 32 35 36 37 40 38 38 35 31 30 30 33 35 36 34 35 34 33 28 28 29 28 28 27 26 25
22 18 10 7 11 7 12 17 17 20 21 18 18 21 19 18 9 12 21 24 26 30 31 32 33 34 35 36 37 33 32 30 29 26 26 27 28 30 30 28 31 31 29 28 28 30 31 26 25
14 15 13 12 16 14 7 8 11 14 14 11 15 21 17 9 8 14 18 21 18 20 25 29 32 33 35 34 28 27 29 29 29 27 27 28 28 28 29 29 28 30 30 27 29 32 33 31 29
17 17 9 16 12 5 4 1 5 9 8 10 11 13 11 13 18 13 13 17 19 20 21 22 24 21 24 22 22 24 25 26 25 26 26 27 28 29 30 31 31 32 35 35 31 32 33 34 36
18 12 12 5 8 8 3 6 2 9 11 10 15 16 15 13 11 12 14 18 16 17 20 21 20 17 18 18 18 23 24 24 24 25 27 28 29 28 28 28 29 29 30 32 31 32 34 31 29
4 8 1 4 5 7 8 7 7 5 5 5 5 9 12 12 13 11 8 10 6 8 11 14 14 13 12 13 9 10 12 14 15 17 18 19 21 21 20 22 24 25 27 29 29 29 31 30 28
16 8 9 8 8 11 16 13 13 14 14 12 14 12 11 13 11 10 10 12 11 10 8 7 7 8 8 10 11 11 10 10 14 14 18 20 22 23 24 26 29 31 33 34 34 33 31 31 30
18 17 13 11 10 8 8 10 11 11 11 11 12 11 10 10 10 10 10 12 11 10 10 11 10 12 13 15 15 16 19 18 19 23 24 25 28 29 31 33 34 35 34 34 35 38 39 38 35
14 10 8 10 8 7 10 11 9 10 11 10 10 11 11 11 11 11 12 13 14 15 11 14 17 18 19 21 22 23 22 24 24 27 29 30 32 35 37 38 38 38 39 39 39 38 38 39 39
10 8 6 6 6 6 8 7 9 9 8 8 10 9 12 13 14 13 14 16 16 18 17 18 18 21 23 22 26 27 27 29 29 29 32 34 35 37 38 39 40 41 42 42 42 43 44 44 43
6 3 3 3 3 6 8 8 7 5 6 9 11 13 15 14 15 16 14 14 19 19 20 22 22 23 25 26 27 29 31 33 34 34 36 37 39 41 41 42 42 43 44 45 46 45 46 46 48
2 2 11 9 8 8 7 10 11 12 12 11 10 12 14 16 18 15 15 17 19 19 20 21 22 24 27 28 31 31 32 34 35 34 37 39 40 41 44 46 47 48 48 48 46 46 46 47 48
7 9 9 10 9 9 9 7 9 12 18 17 13 11 11 11 11 13 16 20 20 21 22 25 28 30 31 34 35 36 36 39 41 42 42 44 46 48 50 52 53 55 55 56 57 60 57 51 50
9 9 10 11 12 14 13 12 11 12 16 19 15 17 18 17 17 15 14 16 20 23 26 29 30 32 35 36 39 42 43 44 47 49 51 51 52 54 55 56 57 57 60 63 64 64 64 63 58
10 9 10 11 13 11 15 13 13 13 14 16 16 18 21 23 24 24 23 23 24 25 27 31 36 39 39 43 45 46 47 48 50 52 54 55 56 58 60 60 61 62 65 68 68 68 68 68 67
10 11 11 12 12 11 14 15 15 11 14 17 15 15 18 18 20 26 27 28 29 32 36 39 40 42 45 48 48 50 51 51 54 56 58 60 61 61 61 62 65 68 71 72 73 73 72 71 67
17 13 16 14 13 18 18 18 20 19 16 20 23 21 22 25 27 29 34 36 38 39 38 41 45 48 51 52 52 54 54 53 55 58 60 62 63 63 66 68 70 73 74 72 70 66 66 67 65
16 16 15 17 18 18 24 19 23 27 26 25 24 24 30 33 33 35 37 37 38 40 43 44 47 49 52 56 58 57 55 57 58 59 63 63 63 66 69 71 73 73 73 67 63 61 59 62 64
20 19 20 17 18 19 21 24 21 29 33 36 36 30 31 41 40 33 40 42 41 39 39 43 47 49 51 51 53 57 58 59 59 60 61 64 68 68 70 73 74 73 69 64 61 60 59 59 59
17 18 20 23 23 25 25 22 16 28 29 34 40 42 40 49 51 48 47 45 42 41 44 48 49 52 54 57 55 53 55 56 59 61 62 64 67 69 71 71 69 63 60 59 61 59 60 58 60
17 19 21 22 22 23 28 27 28 28 24 26 33 37 46 49 52 53 53 52 54 52 54 55 57 61 60 60 61 62 62 62 62 63 64 66 65 64 65 65 63 60 61 59 54 58 63 60 64
20 23 24 26 28 27 23 25 23 29 29 37 39 42 48 49 54 57 60 61 61 60 60 60 63 65 61 58 60 62 62 62 65 68 69 68 69 66 62 63 62 63 60 58 56 61 62 63 64
23 24 28 31 32 34 31 23 17 29 32 32 36 43 50 52 57 62 64 64 64 63 62 63 65 64 63 62 62 61 62 66 68 68 68 70 69 65 61 60 61 62 65 66 67 64 64 64 62
21 27 30 33 36 40 39 32 25 30 28 29 38 46 51 52 58 59 57 57 60 60 61 64 64 62 63 62 60 63 67 69 69 68 69 66 62 60 59 60 62 62 61 61 60 60 60 61 59
29 31 35 36 36 41 46 40 33 36 44 41 49 55 56 62 63 61 61 61 63 64 62 60 62 61 61 61 66 69 70 72 71 70 67 61 57 57 57 58 58 56 56 56 58 59 58 57 56
30 28 30 38 39 39 44 45 32 40 38 46 49 55 56 58 59 55 55 57 57 58 59 60 62 63 65 67 70 72 74 75 74 72 63 57 58 57 56 54 54 54 54 55 56 58 58 59 62

GFSSGP_500_spd_006.txt.gz
Wind_Speed
26 23 18 13 18 21 24 26 25 23 21 22 24 27 29 31 31 32 32 30 26 18 14 11 17 21 25 23 19 21 25 28 30 29 28 27 34 34 31 33 36 30 33 33 33 30 27 23 41
22 14 11 18 21 23 25 24 21 21 20 22 25 30 33 36 36 36 33 32 34 21 19 19 18 20 26 30 28 29 31 31 34 36 38 41 37 35 30 31 30 33 30 31 30 27 29 32 35
11 12 18 25 23 23 21 17 18 21 23 24 26 26 29 33 34 29 34 29 24 21 18 18 19 24 27 30 32 33 36 35 39 41 42 40 40 36 30 30 28 30 34 33 30 30 26 27 30
12 19 21 24 22 10 9 13 14 21 23 27 27 22 29 27 21 18 27 27 27 27 30 30 27 27 30 34 37 39 40 44 43 40 33 32 31 32 32 31 31 33 37 34 30 31 27 24 22
20 24 22 17 15 0 9 14 18 20 22 24 24 22 20 18 16 25 17 21 26 27 27 28 30 33 35 38 40 41 39 38 36 30 31 30 27 26 27 28 31 31 32 31 27 29 27 28 24
23 23 18 13 8 4 10 16 12 12 13 14 14 15 17 13 12 5 12 19 21 20 20 23 26 28 31 32 33 32 31 30 28 29 30 30 27 25 25 24 23 22 25 25 24 26 27 26 29
21 16 13 10 4 5 7 9 9 9 9 9 10 11 11 10 6 8 12 15 16 17 18 20 22 25 28 27 25 25 24 23 25 26 27 26 25 23 22 22 24 24 26 27 24 24 26 25 25
14 11 6 9 7 4 2 4 6 6 6 11 12 10 9 11 12 15 15 16 14 15 18 20 21 21 21 21 22 24 25 24 27 27 27 26 26 25 23 22 19 17 16 18 18 16 18 20 15
2 6 9 8 6 5 3 2 5 10 7 8 6 4 4 7 7 8 8 7 7 9 13 12 16 17 19 16 17 19 19 19 19 20 21 21 18 16 15 16 17 19 18 20 21 19 20 21 21
6 9 9 5 9 10 13 13 8 13 13 13 13 12 12 11 10 11 13 14 12 12 13 12 5 2 2 5 7 9 8 10 11 12 13 15 17 19 20 21 22 24 25 27 28 28 25 24 23
17 20 16 14 14 15 14 12 13 12 11 11 9 9 8 9 11 12 12 10 7 9 11 12 14 13 12 14 17 19 19 19 21 22 22 23 24 24 26 26 28 28 29 31 32 32 32 30 30
16 13 13 10 9 10 11 10 10 9 10 9 9 9 9 9 10 11 11 13 13 12 14 17 16 17 19 21 20 22 23 23 25 26 27 28 30 30 30 31 32 33 34 34 35 35 36 36 35
10 10 9 9 9 7 7 7 9 10 9 11 13 13 12 13 13 13 16 17 16 16 16 18 21 22 23 25 26 25 26 27 28 30 30 32 34 35 35 35 35 36 36 36 36 36 37 39 39
11 8 7 5 4 5 5 7 6 9 12 10 11 14 16 16 16 16 16 17 18 16 17 20 21 24 26 27 29 29 29 30 31 32 33 33 34 35 36 36 37 38 39 39 39 39 39 40 41
11 7 4 3 2 1 4 4 3 3 7 10 12 13 15 17 19 20 20 20 22 23 23 24 25 24 25 26 29 31 31 33 34 34 35 37 39 39 39 39 40 41 41 42 43 44 44 43 42
4 2 4 4 2 2 5 8 8 5 5 10 10 9 10 13 18 20 21 23 25 24 22 22 23 26 28 29 31 33 35 36 38 40 43 44 45 47 46 46 47 48 48 49 49 50 51 51 50
2 3 6 4 5 3 3 4 7 11 13 14 13 9 9 10 11 12 13 13 17 21 22 23 25 26 30 34 37 38 39 42 46 46 47 49 50 51 53 52 53 55 55 55 56 56 55 56 58
9 8 9 9 6 8 6 7 8 11 13 14 16 15 15 17 17 19 20 21 24 26 28 30 32 36 40 41 42 45 44 46 47 49 51 52 54 55 57 57 57 58 58 58 59 59 60 63 64
10 11 11 12 11 9 12 14 11 14 14 15 16 18 19 22 23 24 27 29 32 34 37 41 43 44 44 45 48 49 51 52 53 55 56 56 55 57 59 60 60 62 62 61 62 63 65 68 70
10 12 14 16 17 13 13 16 18 16 14 18 23 24 26 27 27 28 28 34 34 33 37 40 44 46 48 49 52 54 55 55 56 57 58 60 59 59 60 61 63 63 61 61 63 65 67 69 70
14 13 14 13 15 22 20 19 19 19 17 18 19 20 22 23 30 32 29 28 30 33 33 33 36 44 49 52 54 55 56 55 55 58 59 59 60 61 61 63 63 64 63 63 64 67 68 70 71
14 16 16 14 13 17 19 19 20 20 20 23 26 22 23 26 30 31 32 32 33 33 35 35 38 42 47 49 51 55 57 60 60 60 60 60 61 61 62 63 63 63 66 68 68 70 69 65 63
14 15 16 16 19 18 19 18 19 24 26 28 32 31 32 34 33 34 37 40 40 43 45 46 48 48 52 51 51 55 57 55 56 57 59 59 59 58 59 63 66 67 66 67 71 74 74 70 66
15 13 17 19 20 19 22 22 25 31 31 33 35 37 42 38 38 42 46 49 48 51 48 47 49 52 54 57 57 55 56 59 60 60 60 60 61 64 66 64 64 66 69 69 70 70 69 70 70
15 15 18 22 21 23 25 21 29 31 34 35 36 42 40 38 42 46 50 50 55 55 53 53 53 57 58 60 61 61 60 61 60 61 63 67 68 69 67 67 68 67 66 67 60 71 68 68 72
16 17 18 22 24 21 22 22 26 30 32 34 39 40 44 41 47 49 52 55 55 56 60 59 58 60 61 61 61 62 62 62 62 64 67 68 69 71 70 69 67 65 60 65 67 69 62 64 74
18 20 24 26 30 28 22 17 22 25 27 35 36 42 46 45 43 48 51 51 54 57 57 58 57 56 58 60 62 63 64 65 67 69 70 68 69 69 69 66 60 64 54 60 70 70 70 71 70
22 24 31 32 33 34 32 22 26 24 31 29 41 47 45 46 46 49 52 56 53 52 52 53 57 59 62 64 66 67 69 71 72 73 74 74 74 74 70 62 59 62 66 69 71 70 70 69 66
24 27 31 34 34 36 41 33 26 32 38 43 47 45 48 44 48 54 55 52 55 55 55 57 59 61 63 66 68 70 72 73 75 77 78 78 77 74 67 62 59 60 62 66 67 67 65 64 61
24 25 30 37 38 37 43 43 35 39 40 47 46 45 45 47 52 52 50 52 53 57 60 59 61 65 68 68 69 71 74 76 78 78 79 78 75 69 62 58 56 57 58 59 60 61 61 60 60

GFSSGP_500_spd_009.txt.gz
Wind_Speed
26 28 25 29 28 24 25 26 26 24 21 17 13 16 21 24 26 28 30 33 36 39 31 12 16 16 18 22 24 25 27 26 24 27 31 32 36 40 39 38 38 35 31 30 31 30 30 28 27
27 27 27 30 25 24 24 24 25 25 22 19 18 19 21 23 27 30 32 35 38 39 36 38 27 20 17 22 26 28 26 30 35 34 34 36 40 41 36 35 32 31 28 24 27 28 30 31 28
24 24 24 26 25 17 22 24 25 20 21 21 20 22 24 25 27 31 35 33 28 31 28 23 16 17 20 22 27 29 33 36 39 37 39 41 36 31 32 32 30 28 28 27 30 33 30 28 24
20 23 24 19 18 16 21 16 16 16 15 15 18 21 25 26 27 21 17 19 22 22 23 20 25 28 30 33 34 36 38 39 40 42 40 34 29 28 27 25 25 27 28 28 32 32 29 27 25
21 22 19 19 19 18 14 9 11 12 15 14 15 15 18 19 16 16 15 16 17 19 24 29 33 37 35 34 34 35 36 34 31 31 32 28 28 29 26 25 26 26 26 25 28 28 26 25 25
17 15 17 16 17 8 5 9 8 9 10 11 10 10 13 14 13 11 12 12 15 20 24 28 29 29 28 28 27 25 26 27 26 25 24 25 27 27 26 25 24 22 22 23 25 24 24 23 24
8 11 13 13 10 2 4 9 6 5 6 8 9 10 11 11 10 10 13 16 18 20 20 23 23 24 21 21 21 22 23 24 24 25 26 27 26 27 26 25 24 24 25 23 19 12 13 13 11
6 6 5 9 9 5 4 7 7 6 8 9 11 10 12 13 13 12 13 13 15 20 21 21 19 17 17 19 21 20 20 21 20 20 18 19 20 20 18 16 16 16 15 16 17 16 15 14 15
2 1 10 12 9 6 1 3 7 6 8 8 7 7 12 13 14 16 13 11 10 10 11 10 11 11 11 12 14 16 18 19 18 19 18 18 17 16 17 17 17 18 18 20 22 23 23 22 20
5 15 17 15 14 15 14 13 13 12 11 10 10 8 9 10 11 11 10 11 13 13 12 11 9 8 9 10 13 17 18 19 20 22 22 21 22 22 24 24 24 25 26 26 27 27 27 27 25
18 18 19 14 13 13 12 10 9 9 9 9 9 11 11 12 13 13 10 12 14 14 16 13 11 12 14 15 17 21 24 25 25 26 27 28 29 28 28 28 28 29 29 31 31 32 31 30 30
17 16 15 14 12 10 9 8 7 8 6 5 5 5 6 7 10 13 14 14 13 15 17 17 17 17 20 22 23 24 25 26 28 30 31 31 32 34 33 33 32 32 32 32 32 33 34 33 33
13 12 11 8 7 7 6 5 5 6 8 10 11 10 10 11 11 12 14 17 20 20 20 22 24 24 24 23 23 24 25 26 27 29 31 32 33 34 34 35 36 37 36 36 35 35 36 36 36
11 8 10 6 3 4 2 4 6 8 11 13 14 13 11 10 11 12 14 17 19 21 22 23 25 26 25 26 27 28 29 30 31 32 33 34 37 38 39 40 42 42 42 43 44 44 44 43 44
5 4 3 3 4 4 2 4 1 2 6 9 12 14 14 14 14 17 19 21 24 25 26 26 27 27 28 29 30 31 32 35 37 40 41 42 44 45 45 45 46 47 47 47 47 49 50 50 50
3 1 1 3 4 5 5 3 3 4 4 8 10 12 11 12 13 14 13 13 14 17 21 23 25 27 29 31 35 39 41 41 42 43 46 48 49 50 51 52 51 51 51 52 53 53 53 53 54
4 2 5 6 5 4 7 7 8 7 8 10 11 13 13 13 13 14 16 17 18 21 25 29 32 35 37 40 42 44 45 45 46 49 52 54 55 55 56 56 55 55 56 56 56 57 58 57 58
5 8 7 4 3 6 4 5 6 10 12 13 15 16 17 18 19 21 21 25 29 32 35 35 37 41 43 44 46 48 50 50 50 51 53 54 56 57 57 58 59 61 61 60 60 60 61 62 62
7 7 10 12 8 9 9 9 11 12 15 17 18 19 21 22 24 26 26 26 26 30 31 33 36 39 43 46 48 49 50 51 53 55 56 55 56 58 60 60 61 62 61 61 61 62 63 64 64
8 9 9 14 14 11 12 16 16 17 17 21 23 22 20 23 25 25 28 30 29 32 31 32 34 40 44 48 50 50 51 52 52 54 58 61 63 64 63 61 61 62 63 63 62 60 60 61 61
10 11 11 10 14 13 12 14 18 20 21 22 22 24 27 27 27 30 30 28 30 31 32 36 40 44 48 50 53 55 52 54 53 55 57 60 62 62 63 63 63 61 61 61 62 61 60 59 60
13 14 14 13 12 12 15 15 20 20 21 23 25 27 27 29 27 30 29 30 32 33 38 40 44 49 51 51 52 53 56 56 57 60 62 61 61 63 63 62 61 62 64 66 67 66 66 66 63
13 16 15 13 14 17 16 20 23 22 25 25 26 27 30 28 30 32 31 33 37 40 44 47 53 55 54 54 55 57 58 57 56 57 57 58 60 60 60 61 63 65 66 67 70 68 68 69 68
15 14 13 14 16 19 20 22 24 27 28 30 31 32 33 34 34 34 40 40 42 47 49 54 57 59 59 58 59 59 58 58 59 61 63 63 65 66 68 69 69 67 65 63 64 66 67 69 68
19 15 15 17 17 20 23 26 28 30 32 30 31 36 38 41 41 43 45 46 50 53 56 58 59 59 57 57 56 56 58 60 62 64 66 69 71 71 70 69 69 69 66 66 66 67 65 66 65
17 15 16 20 22 22 27 28 27 31 37 37 41 41 42 45 47 49 50 51 53 55 57 58 57 56 56 58 60 61 63 65 67 70 72 73 74 76 76 76 74 72 68 65 64 63 64 58 63
18 19 22 26 28 28 25 21 25 31 36 44 44 47 49 49 50 50 50 49 53 54 54 54 53 52 57 60 62 64 66 70 71 73 75 78 80 81 80 77 72 71 67 64 55 62 65 68 70
20 24 27 31 33 35 33 22 26 32 41 41 47 50 49 48 46 46 47 50 52 51 54 54 56 60 63 65 68 70 71 73 76 79 81 84 84 82 80 76 73 69 66 59 58 64 67 70 71
23 27 31 34 35 37 42 33 32 37 43 44 43 42 41 43 45 47 48 49 50 56 59 60 62 64 68 70 71 73 78 81 79 78 77 77 78 79 76 71 68 65 61 58 59 62 65 69 72
25 28 32 37 38 37 42 38 37 41 42 37 38 40 43 46 46 45 48 53 57 59 60 61 62 66 70 72 77 82 81 82 81 82 80 80 77 73 69 65 61 58 55 53 54 55 57 58 59

GFSSGP_500_spd_012.txt.gz
Wind_Speed
26 29 29 30 29 29 25 27 26 24 24 23 22 20 18 18 20 21 22 24 26 27 31 32 26 28 31 34 25 25 24 27 29 25 27 30 31 32 33 34 33 33 29 27 25 22 21 23 26
28 30 32 30 27 26 23 23 23 22 22 19 15 14 14 18 20 22 24 27 31 33 28 25 25 25 33 26 22 25 28 34 32 34 36 37 36 35 34 31 29 28 28 26 26 24 23 25 25
31 32 28 24 22 21 21 21 22 20 18 16 15 16 18 21 22 25 27 26 22 17 19 19 14 16 18 18 23 25 32 34 34 36 38 38 37 35 31 27 25 26 23 23 25 26 26 27 24
29 29 25 19 19 19 20 21 19 18 17 19 17 17 20 22 23 25 19 20 21 20 17 15 17 21 22 27 35 35 35 36 36 34 32 31 32 32 28 26 26 26 26 25 25 25 26 26 24
22 18 18 18 17 13 13 12 15 18 11 9 9 10 12 12 14 16 19 19 18 18 17 22 25 28 31 33 32 29 27 26 26 26 26 24 23 23 25 25 24 24 24 24 24 23 25 23 22
14 12 12 12 9 6 11 9 5 5 6 7 9 8 9 11 11 11 13 13 14 16 20 23 24 25 23 21 21 20 20 22 24 25 25 24 24 25 25 25 24 23 23 23 24 25 25 22 21
4 6 4 4 7 9 8 7 2 5 6 7 8 9 11 14 14 13 12 14 18 18 19 19 20 21 21 20 21 21 19 18 17 17 18 19 21 21 22 21 19 20 22 22 19 15 13 13 14
9 5 2 7 9 9 8 4 6 4 6 7 7 7 8 10 12 12 12 10 13 12 10 11 11 11 11 11 10 11 12 15 15 15 15 15 15 15 15 16 17 19 19 19 20 18 18 18 19
5 1 6 10 9 4 7 9 15 15 14 15 15 12 11 9 11 10 11 11 12 10 10 12 14 14 13 13 14 16 17 19 20 21 21 21 21 21 22 23 23 23 23 23 23 24 23 23 23
4 8 11 12 13 13 15 14 13 12 10 10 10 11 10 9 7 7 8 9 10 11 11 13 15 16 16 18 20 21 22 22 23 24 24 24 24 25 26 26 27 27 28 27 27 27 27 27 26
18 18 19 18 15 14 13 12 10 7 7 7 8 7 6 6 4 4 7 11 12 13 15 16 16 15 16 16 17 18 20 22 24 25 26 27 27 27 27 27 27 27 28 28 29 29 28 29 28
16 17 15 13 12 12 10 9 8 4 4 5 7 8 9 9 8 8 10 12 13 14 16 17 18 17 17 19 21 22 22 23 25 26 28 28 30 31 31 32 34 35 36 36 36 35 34 33 32
15 15 13 12 10 7 8 6 4 3 5 6 7 9 10 11 9 8 9 11 12 14 16 19 21 21 22 22 22 23 25 26 27 28 31 32 33 34 36 37 38 38 38 38 40 42 43 41 40
7 7 6 6 6 5 4 4 6 7 7 7 10 10 9 10 12 12 12 13 15 17 19 21 22 23 25 26 28 29 30 31 33 36 38 39 39 39 40 41 42 44 44 44 44 44 44 45 45
6 5 3 2 4 4 4 6 6 5 6 7 8 10 12 13 16 15 17 19 21 22 24 25 26 28 30 32 33 35 37 38 41 44 46 45 45 45 46 47 49 49 47 49 49 47 46 47 48
1 1 1 2 4 6 6 3 2 5 9 8 8 10 11 12 15 16 16 15 17 19 22 24 29 32 33 35 37 39 42 43 45 46 46 47 47 47 48 49 50 51 50 50 51 52 53 54 54
4 5 4 7 8 7 7 8 8 9 10 10 10 12 14 16 17 18 19 19 20 25 28 29 33 36 40 41 42 42 43 45 47 47 48 50 51 51 52 54 54 54 55 55 56 58 59 59 58
5 6 7 7 6 6 4 5 7 9 13 16 16 17 19 21 24 25 27 27 25 29 33 35 38 41 43 43 42 42 45 49 51 52 54 54 54 54 54 57 59 60 61 61 60 60 60 60 60
6 7 6 5 4 7 7 11 12 14 17 18 18 21 25 25 24 27 29 30 32 33 33 35 39 39 41 44 47 48 52 54 54 53 53 54 57 58 59 59 58 59 59 60 59 59 60 60 61
7 8 8 10 8 6 9 13 15 17 19 21 23 24 25 25 27 28 29 30 30 31 32 37 41 42 47 50 50 53 55 56 56 55 53 54 56 58 60 61 60 60 62 62 62 59 57 56 56
9 10 10 10 14 11 12 15 17 17 18 19 22 24 26 27 27 30 31 29 32 33 36 40 43 45 51 52 53 56 54 54 54 53 54 54 54 56 58 60 62 63 64 63 63 64 63 63 61
15 15 14 15 13 12 16 19 19 21 21 23 25 27 27 28 29 32 30 34 32 35 40 42 44 48 53 54 56 56 54 51 52 53 54 54 57 58 60 61 63 65 66 67 68 68 68 68 68
16 18 18 16 14 14 16 18 20 23 25 28 30 31 32 33 33 32 35 36 38 42 44 47 48 52 52 55 54 54 55 56 56 58 59 61 62 64 66 67 68 69 70 69 69 70 70 71 70
18 18 17 16 16 16 18 20 22 27 31 34 35 36 35 36 35 37 40 42 44 46 47 49 50 49 52 53 55 57 58 60 62 62 63 65 67 68 70 72 74 75 76 77 78 78 75 72 65
19 19 17 16 17 19 21 24 29 30 34 34 36 37 39 38 39 41 43 44 46 46 48 51 52 52 52 57 59 60 63 66 67 69 71 72 72 72 76 78 78 78 78 78 77 73 71 70 67
18 16 17 20 21 23 27 29 33 32 35 38 40 41 41 42 44 46 47 47 47 49 51 54 53 55 58 60 62 62 64 68 72 75 74 76 80 82 79 78 80 79 80 80 79 77 72 68 60
17 18 20 23 26 26 28 27 33 34 37 38 39 40 42 44 46 47 46 46 49 51 53 56 58 58 62 65 64 66 65 70 75 77 80 84 85 85 86 83 84 84 82 80 75 67 63 58 59
19 22 25 27 31 32 30 21 26 37 40 37 37 39 40 42 42 43 44 46 50 54 56 57 60 63 65 69 73 74 77 81 78 83 86 88 89 87 86 87 85 83 81 70 62 60 58 57 53
23 26 28 29 31 33 35 26 28 30 33 33 33 35 37 41 42 42 45 50 54 54 58 63 64 67 68 70 72 75 77 81 85 86 88 88 88 88 89 84 80 74 64 57 55 53 52 51 52
24 27 30 33 35 33 34 30 31 34 32 33 36 40 42 41 40 45 50 53 58 62 64 66 66 67 68 68 68 75 80 84 88 91 91 89 89 88 82 75 68 58 53 51 49 48 48 49 50

GFSSGP_500_spd_015.txt.gz
Wind_Speed
25 25 24 25 24 25 24 23 22 21 19 19 19 19 17 15 16 18 18 20 24 25 27 31 29 24 23 24 26 26 27 28 31 32 30 28 31 29 30 28 28 28 25 25 23 24 23 24 23
25 26 26 24 22 24 23 23 22 19 18 20 20 18 17 19 19 18 20 23 25 24 20 18 18 17 14 14 17 24 26 27 34 36 34 32 32 29 27 26 25 25 24 23 24 23 24 26 26
26 27 23 21 21 20 19 18 19 18 17 18 18 19 21 21 22 22 22 23 18 18 19 17 13 12 12 16 21 26 27 30 35 33 30 27 27 27 27 28 25 21 23 24 23 22 21 22 26
21 20 19 19 18 16 17 15 13 15 16 17 19 20 19 16 15 17 18 17 18 19 20 19 17 20 24 26 27 27 25 25 24 23 23 22 22 22 21 21 20 21 22 22 22 22 22 21 22
15 16 17 12 9 9 10 10 12 13 14 13 8 6 7 8 9 9 11 13 14 14 17 19 19 21 21 21 19 18 18 19 19 19 19 18 18 19 20 21 21 21 21 21 22 22 21 22 23
9 7 4 5 7 8 7 6 7 5 5 5 3 5 6 8 10 9 11 10 12 15 15 14 15 17 18 17 15 15 14 12 12 12 13 12 12 13 13 13 14 14 15 17 19 21 21 19 17
3 4 3 5 5 4 4 5 1 1 2 2 2 3 4 6 5 5 5 5 6 7 8 10 11 11 11 10 9 9 10 12 14 16 17 18 17 17 17 17 17 17 15 15 14 15 16 16 16
9 9 5 2 1 1 3 5 5 8 10 8 8 11 11 10 9 9 9 8 6 7 8 10 12 15 15 14 14 15 16 17 17 17 18 17 18 18 19 20 21 21 21 20 21 22 21 19 18
7 4 2 6 7 6 14 16 15 13 13 12 12 9 8 7 8 7 9 9 9 10 11 13 14 14 15 16 17 17 17 18 18 18 18 19 19 19 19 20 22 22 23 24 24 24 24 24 24
5 6 9 7 10 17 15 13 12 12 11 11 10 8 7 4 6 7 9 10 11 11 11 12 14 14 15 15 15 17 17 18 18 19 19 20 21 22 22 22 22 22 23 23 24 25 25 26 26
11 13 13 17 17 15 13 11 10 10 10 8 6 4 3 5 5 7 8 8 9 9 9 10 11 12 14 16 16 17 18 20 21 22 22 22 24 27 27 27 27 28 28 29 29 29 28 28 29
20 19 18 16 14 12 10 6 6 5 6 6 5 3 2 3 4 6 7 9 9 10 11 12 13 15 17 19 20 21 22 25 27 28 28 30 32 35 35 35 34 34 34 35 35 34 34 33 33
14 14 14 12 10 8 7 5 2 2 4 4 4 1 3 6 6 9 10 13 14 14 15 16 17 18 20 21 24 27 29 32 33 34 36 37 39 40 39 39 39 39 39 40 41 40 39 38 39
11 12 11 10 11 9 6 3 3 3 3 3 4 6 6 6 8 11 12 13 14 16 19 22 24 26 27 28 30 32 34 36 37 37 37 38 39 39 39 39 40 41 41 42 42 43 44 44 43
7 6 9 10 10 6 3 1 2 6 9 8 9 10 11 9 10 13 16 19 21 23 24 25 27 28 28 29 31 32 35 38 38 36 37 39 40 40 40 42 42 42 42 43 44 45 45 46 46
3 2 2 1 3 4 3 3 3 8 10 9 10 11 13 13 14 17 21 23 24 25 26 28 30 32 33 35 37 38 39 40 41 43 43 44 45 44 44 44 44 44 44 46 48 50 51 51 52
0 3 5 5 5 7 7 6 6 7 9 9 12 14 17 16 17 20 22 24 28 28 26 29 34 38 40 39 40 41 42 43 45 45 49 51 50 50 49 49 50 51 52 52 52 51 51 50 50
2 3 5 6 8 7 6 9 6 10 11 12 15 16 18 19 19 20 23 28 30 30 32 36 38 39 39 40 41 45 46 49 48 51 51 49 49 49 49 48 49 50 51 52 52 53 53 52 53
4 4 5 4 6 10 9 11 12 14 16 16 16 18 19 20 21 24 28 31 32 33 35 37 40 41 41 43 47 49 50 54 52 53 53 53 51 51 53 54 55 56 57 57 58 60 61 60 59
6 6 7 7 6 8 10 11 11 13 15 17 18 19 22 24 27 30 32 32 34 34 35 38 39 39 44 47 49 49 52 52 52 52 52 52 54 54 53 55 56 58 59 59 59 60 62 64 65
8 9 9 10 11 10 11 13 14 16 18 20 21 23 25 27 30 32 33 33 35 35 38 39 40 44 47 49 51 52 52 51 51 53 55 57 57 57 59 60 60 61 62 63 65 66 66 68 67
13 14 13 12 14 14 15 15 16 18 17 19 22 24 28 29 30 31 32 35 35 37 39 41 43 48 49 48 49 51 52 53 54 58 59 59 60 62 63 64 65 67 66 66 68 71 72 73 73
17 17 17 15 15 16 16 18 18 20 21 23 26 29 30 28 31 31 34 35 37 41 43 45 47 48 47 48 51 53 55 56 60 62 63 64 64 66 67 68 70 70 72 74 75 71 69 71 72
18 19 19 18 16 16 18 20 21 23 26 28 28 28 29 31 33 34 36 39 41 43 45 46 46 48 50 53 55 57 59 62 65 68 69 69 71 72 74 77 77 77 79 79 77 78 77 75 75
18 17 19 19 18 17 19 23 25 26 29 31 32 33 33 35 37 39 40 42 43 43 44 45 48 50 53 56 59 62 65 68 70 71 74 75 76 77 81 81 82 81 80 80 78 76 76 78 79
16 15 16 18 19 20 22 28 27 29 29 32 35 35 37 37 39 39 41 43 45 47 48 49 53 57 60 61 64 68 72 73 75 75 75 71 76 79 82 85 85 83 81 83 82 83 82 79 78
14 15 17 20 21 23 23 27 28 29 33 34 35 38 38 40 39 41 43 45 47 49 52 56 61 64 65 66 70 73 75 76 77 78 78 79 82 86 88 88 87 87 88 91 91 87 80 74 70
19 20 22 24 25 27 24 21 28 29 34 36 34 36 34 35 38 42 45 46 50 53 57 61 64 66 68 71 74 75 77 76 76 77 80 83 82 85 89 90 91 97 98 95 86 77 67 60 55
21 23 25 26 28 31 32 18 29 31 32 33 32 35 36 39 43 46 46 49 52 58 63 65 68 70 72 74 76 76 77 77 78 82 82 83 86 89 93 99 102 95 82 73 64 54 50 48 47
24 26 28 30 31 32 35 25 30 34 33 32 34 37 41 44 47 47 49 54 60 63 65 68 71 73 75 75 75 78 80 80 82 81 81 85 90 93 94 91 86 75 59 49 45 48 50 49 46

GFSSGP_500_spd_018.txt.gz
Wind_Speed
25 23 22 21 21 21 22 22 23 22 20 19 20 19 20 21 22 20 19 21 23 23 24 22 21 22 22 23 23 20 21 23 24 25 27 25 25 25 25 27 24 22 20 19 18 19 20 22 24
23 23 22 21 20 21 23 23 21 21 20 19 18 18 18 19 19 20 22 24 22 22 20 21 23 24 23 25 22 23 23 24 24 24 23 22 23 24 24 24 25 23 20 18 17 20 21 19 19
23 22 21 19 19 21 22 21 21 18 17 18 17 17 17 17 19 18 18 20 18 18 18 18 18 18 18 19 21 21 20 17 16 16 15 16 14 15 15 16 16 17 17 17 19 20 20 20 20
22 19 20 17 19 19 18 16 15 16 15 13 13 15 16 12 7 7 8 11 13 13 12 14 15 15 17 17 16 14 14 15 14 15 15 15 14 14 14 14 15 16 17 17 16 16 17 18 18
18 17 14 16 17 16 12 12 11 9 9 10 10 6 5 6 6 7 7 7 9 10 11 12 13 14 15 15 13 12 11 11 11 11 13 14 13 12 12 12 12 12 13 14 14 15 16 17 17
11 12 11 13 9 7 7 4 3 5 5 6 6 6 5 6 9 8 7 5 5 6 6 8 10 10 10 9 10 10 9 10 10 12 12 13 13 12 13 12 12 13 13 13 12 10 10 10 12
10 9 9 6 6 5 4 4 6 7 6 6 5 2 1 2 6 9 11 11 8 7 7 7 6 7 8 9 9 9 9 9 11 13 13 13 13 13 14 15 16 16 16 17 17 17 16 15 16
11 9 8 5 4 6 4 5 7 8 7 9 10 10 7 7 7 6 8 7 5 5 4 4 4 5 5 4 5 7 9 10 12 12 13 13 12 12 13 14 16 16 17 19 19 19 19 19 19
14 7 6 8 10 9 13 18 14 13 13 13 10 9 7 7 7 7 7 5 3 2 1 4 6 7 9 11 12 13 14 14 15 15 16 16 16 16 18 18 18 18 18 19 20 21 21 21 22
11 9 11 12 15 19 16 14 13 13 12 11 9 7 5 5 5 4 2 0 1 2 4 6 8 10 12 14 16 17 19 19 19 20 21 22 21 20 22 23 24 24 23 23 24 24 24 25 25
12 14 14 15 19 15 14 13 11 10 9 7 5 3 1 1 1 3 5 7 8 8 11 13 15 15 17 17 17 18 18 19 21 24 26 27 28 29 31 33 33 32 31 31 31 30 30 30 30
17 18 17 16 14 11 9 8 7 6 6 6 5 2 1 3 5 7 8 10 12 14 14 16 15 16 16 18 20 22 24 26 27 28 29 30 32 33 33 34 35 34 34 35 35 36 37 37 37
16 14 14 13 12 9 7 7 5 5 3 2 2 4 4 5 5 6 10 12 15 17 18 17 18 18 20 23 26 28 29 30 31 31 33 33 32 33 34 36 36 36 36 36 37 38 38 38 38
15 15 13 11 12 10 7 6 7 6 6 5 4 4 5 6 7 9 12 14 16 18 20 20 22 23 24 27 29 30 31 32 33 33 33 34 38 40 40 41 40 39 38 38 38 39 40 40 41
11 9 8 9 9 8 7 6 6 6 5 3 7 9 8 10 12 13 14 16 18 20 22 24 26 27 29 31 33 34 34 35 36 37 37 39 42 42 43 42 41 39 38 38 38 38 39 41 43
7 6 5 9 10 7 5 7 7 7 8 8 9 11 12 13 12 14 16 18 20 23 26 26 27 31 33 36 37 38 37 37 39 42 44 46 45 45 45 44 42 42 41 41 41 41 41 41 42
3 3 4 4 5 5 7 8 7 10 11 8 11 12 12 12 14 17 19 22 25 29 30 31 34 34 35 38 39 39 40 42 44 45 47 49 48 47 45 45 45 46 47 47 47 48 48 48 47
4 4 5 6 8 9 10 10 8 11 9 12 14 14 13 14 16 20 23 26 30 32 33 35 36 36 39 41 41 42 45 47 48 49 50 51 50 50 50 51 52 53 55 56 57 57 58 58 57
3 3 4 7 9 11 12 15 12 14 15 14 14 15 15 16 20 23 26 30 33 34 36 37 38 39 41 43 45 48 50 52 52 51 52 52 52 53 54 55 56 58 59 59 60 61 62 62 61
4 5 7 7 8 11 11 12 12 12 13 15 15 17 19 22 25 27 30 33 35 36 37 39 39 41 44 47 48 50 53 53 51 52 53 54 55 57 58 61 63 63 64 65 65 66 65 63 63
8 8 9 11 11 13 14 15 14 14 15 17 18 19 22 25 27 30 33 35 36 37 40 41 41 44 47 50 51 51 51 51 53 56 57 59 61 64 65 67 68 69 69 69 69 69 69 69 69
12 12 12 12 14 15 14 17 15 16 18 18 20 22 25 27 30 31 33 36 37 40 42 43 45 49 50 50 50 51 52 54 58 60 62 63 65 66 68 71 73 73 73 74 73 74 76 75 73
16 16 16 15 15 16 15 16 16 18 19 21 23 27 29 31 32 33 35 38 41 43 44 45 46 46 48 50 52 53 56 59 62 63 64 71 73 74 76 77 77 76 74 74 74 77 78 79 78
18 18 18 19 18 17 17 18 21 20 22 26 30 31 33 34 34 35 38 40 42 43 43 43 45 48 50 52 53 57 62 65 66 68 69 73 76 77 79 78 78 76 76 77 79 81 81 81 80
19 17 18 18 18 18 18 21 22 25 27 29 32 33 35 36 37 39 39 40 41 41 43 46 49 51 54 56 60 64 68 69 71 72 74 76 78 79 79 79 79 80 82 84 80 80 83 81 82
14 13 14 16 18 20 20 24 25 28 29 31 33 35 37 38 38 39 40 39 43 46 49 52 53 55 59 63 67 68 70 73 75 75 76 77 78 80 81 81 82 83 83 81 86 88 88 89 94
12 14 15 17 19 21 23 24 25 28 30 32 33 36 36 35 37 37 40 43 47 51 52 53 56 59 63 66 67 68 70 73 75 77 77 78 81 81 81 80 82 85 84 86 92 93 95 92 83
16 17 19 20 22 22 22 27 25 28 33 33 34 34 35 35 40 42 44 48 50 52 55 58 60 63 65 67 69 72 74 77 77 79 80 80 79 80 81 84 85 85 88 94 92 88 74 64 60
19 21 22 24 25 27 27 23 29 35 35 37 34 33 33 37 40 43 46 48 52 56 59 62 64 67 69 69 72 76 78 80 80 80 80 80 79 82 85 86 91 94 89 79 71 58 50 49 48
23 24 27 29 31 31 32 27 30 37 38 35 34 34 38 40 44 47 50 54 57 60 62 65 68 69 70 73 78 79 80 81 79 79 81 83 84 88 93 93 86 75 68 57 48 47 47 50 51

GFSSGP_500_spd_021.txt.gz
Wind_Speed
16 16 15 15 14 11 22 18 24 24 26 24 22 20 22 19 23 19 22 25 24 24 24 21 18 19 19 15 13 13 14 16 17 17 16 17 17 16 17 19 19 19 17 16 17 16 17 18 19
17 17 16 15 11 8 14 21 11 21 22 21 19 18 19 19 19 20 22 23 22 19 15 14 14 13 11 11 13 15 15 13 13 13 14 14 15 14 13 15 14 14 14 14 14 16 17 19 20
19 18 19 13 3 11 19 14 24 22 19 17 18 18 17 17 19 19 16 13 12 11 11 12 12 14 13 14 13 13 12 13 13 14 14 14 13 12 11 12 13 14 14 14 15 16 15 15 16
17 17 16 9 19 26 21 22 19 16 16 16 16 16 15 15 13 10 10 9 8 9 10 12 11 11 12 11 9 8 8 9 11 12 14 14 12 11 10 11 11 11 12 12 12 14 14 15 15
14 12 5 12 24 21 16 17 14 9 14 14 11 11 10 8 8 9 8 8 7 6 6 4 6 8 9 10 10 9 9 9 8 9 9 10 10 8 7 7 8 9 10 11 10 10 10 11 12
13 7 11 9 15 14 15 13 11 10 11 9 10 8 8 7 7 6 4 3 1 4 6 5 7 8 7 7 6 5 5 5 6 7 8 9 8 8 9 10 11 12 13 13 14 13 14 14 14
12 9 12 20 11 12 11 8 9 10 9 10 8 6 2 2 7 10 10 9 8 6 5 4 4 4 5 5 5 5 5 6 8 9 10 10 10 10 10 11 11 12 13 14 15 16 16 17 17
15 20 17 10 6 9 9 11 9 12 12 8 7 6 7 7 6 8 8 7 4 4 2 1 2 2 3 4 6 7 9 11 13 14 15 17 17 18 17 16 17 18 18 18 17 17 18 18 19
14 11 9 7 7 9 9 11 9 8 10 11 9 7 7 8 7 6 5 3 2 0 3 5 7 10 11 12 14 15 16 18 18 18 19 20 20 21 21 23 25 26 27 27 26 25 24 23 23
14 5 14 14 12 14 16 15 12 12 12 11 10 8 8 7 5 3 1 1 4 7 10 11 12 14 14 15 17 17 17 19 19 20 21 22 23 25 26 27 28 30 31 32 31 31 30 29 29
17 16 14 19 20 19 16 13 11 10 9 8 7 6 6 4 2 3 5 6 8 10 12 13 14 15 17 18 18 18 20 22 23 24 25 25 27 28 29 30 30 32 33 34 33 33 33 34 34
15 17 19 19 17 15 13 11 8 8 7 7 6 6 4 3 5 7 7 7 9 11 13 14 15 17 19 19 20 22 24 26 28 29 29 30 30 31 31 33 36 37 37 37 38 38 38 37 36
16 17 15 14 11 10 10 10 8 8 9 7 6 4 6 7 7 7 8 8 11 13 15 16 18 20 22 24 27 28 30 32 33 33 32 32 33 34 34 37 39 39 40 39 37 37 38 37 38
12 12 11 10 10 9 8 8 7 7 6 5 5 5 5 6 7 7 10 12 14 17 19 20 23 25 28 30 32 33 33 34 35 35 35 36 37 39 40 42 43 42 40 37 37 37 37 38 38
10 8 4 4 6 6 5 6 9 8 8 6 5 6 7 8 10 12 13 15 18 21 22 24 27 28 30 32 33 34 36 38 39 38 38 39 41 41 42 42 41 40 39 38 38 38 40 40 41
8 5 3 6 10 8 7 3 9 11 9 5 7 8 9 12 13 16 17 19 21 23 26 28 30 30 31 33 34 35 38 38 40 41 43 43 45 44 44 45 45 44 44 44 45 46 47 48 46
2 2 7 7 9 11 7 9 13 13 12 10 12 11 14 16 17 20 21 22 24 27 30 33 34 34 35 37 39 40 43 44 46 47 49 49 49 49 49 51 52 52 52 53 55 56 56 55 54
11 7 8 9 9 9 9 12 13 12 14 14 15 16 16 17 21 21 25 25 28 30 33 36 38 39 40 43 43 46 48 51 52 53 52 52 51 51 53 55 56 56 58 58 59 62 62 63 64
9 9 9 10 11 11 12 16 16 16 19 18 18 18 19 21 23 24 26 29 31 34 36 39 40 42 44 46 47 49 52 55 55 55 54 53 53 55 57 60 62 62 62 63 65 66 68 68 68
9 9 10 10 10 12 13 17 15 16 18 17 18 20 21 24 24 26 28 31 34 37 40 41 44 45 47 49 50 51 54 57 57 56 56 56 57 60 63 64 68 66 66 67 71 72 72 72 71
11 11 11 12 12 13 15 20 20 19 19 20 21 23 23 24 26 28 31 35 38 41 42 44 46 47 49 52 54 55 57 56 56 58 59 60 62 66 67 68 66 69 73 75 76 76 76 76 74
15 14 14 14 13 10 10 11 24 21 21 22 23 23 24 27 30 33 36 38 41 41 44 46 49 51 51 53 54 54 55 56 58 60 61 65 68 67 68 69 71 73 75 76 76 75 74 75 75
17 17 17 17 17 16 15 13 31 24 23 24 25 26 28 31 34 36 38 41 42 44 47 50 51 51 51 51 53 55 56 58 61 63 66 68 68 71 73 74 74 75 75 76 76 76 77 77 77
21 20 19 19 18 18 19 12 17 29 22 26 29 30 33 36 38 40 41 43 44 45 47 47 46 48 51 52 54 55 58 61 65 68 70 71 72 73 75 76 76 77 79 79 80 79 79 79 79
17 17 17 16 16 11 16 16 29 27 28 30 33 34 36 38 39 41 43 44 44 43 43 44 48 51 54 56 58 60 64 67 69 72 73 73 74 76 77 78 78 78 79 78 79 79 80 81 83
9 10 11 13 15 14 19 19 29 26 30 31 33 36 38 38 39 41 41 41 41 45 47 50 53 55 58 61 63 67 69 72 74 74 74 76 76 77 78 76 77 78 80 79 80 81 82 85 86
12 13 14 16 17 19 21 28 29 31 32 33 34 35 36 38 38 38 38 43 43 46 49 52 55 59 61 63 66 69 73 76 75 73 76 79 81 85 80 80 80 81 81 84 86 87 90 92 84
16 17 18 19 22 22 13 21 23 32 35 36 34 34 37 37 37 38 40 43 46 50 53 57 60 62 66 71 74 77 77 76 77 80 83 84 88 90 85 84 83 82 81 86 89 86 75 69 67
17 17 20 22 23 26 27 21 31 35 35 36 38 35 37 37 39 43 45 47 51 54 58 61 65 68 72 76 78 78 77 76 77 80 84 88 93 90 87 85 83 81 78 71 65 59 54 52 50
18 21 23 24 27 28 28 24 34 34 39 37 34 34 33 37 41 45 49 53 56 59 62 66 70 74 79 80 80 78 78 80 81 84 90 89 90 87 83 80 73 66 60 54 50 48 48 48 48

GFSSGP_500_spd_024.txt.gz
Wind_Speed
14 15 14 12 10 10 8 18 33 29 26 22 18 20 22 20 19 26 22 23 24 27 23 21 18 15 13 8 5 8 8 7 8 11 12 13 12 12 12 12 12 11 11 12 12 13 15 14 15
13 14 13 10 7 6 14 25 29 29 16 15 18 23 26 18 22 26 24 24 25 19 17 12 10 9 10 9 8 7 7 9 10 11 11 10 10 10 9 10 11 11 11 12 12 12 12 14 16
12 13 8 9 11 4 29 27 27 24 17 22 18 24 22 21 23 18 21 18 14 11 8 8 9 9 7 6 6 5 5 5 6 8 10 11 10 9 8 8 9 9 9 10 10 12 13 13 14
12 12 7 10 7 16 23 30 31 21 19 16 23 20 22 20 12 14 12 11 6 5 4 4 4 3 2 2 3 3 4 7 6 6 8 8 9 9 9 8 8 9 9 9 9 8 8 9 10
12 5 17 10 19 26 28 37 27 16 8 18 19 21 12 11 9 8 7 6 2 0 2 5 5 6 8 9 8 6 6 4 4 6 7 7 7 8 9 9 9 10 10 10 11 11 12 11 11
13 14 14 15 27 34 36 33 13 11 15 13 18 12 8 7 6 7 5 4 6 7 7 5 4 4 5 5 5 5 4 6 6 6 7 8 8 9 9 9 9 10 10 11 12 14 15 15 15
17 15 9 25 28 19 23 14 10 17 20 16 11 5 2 3 7 12 14 12 10 8 7 5 3 3 4 5 6 8 9 10 11 12 12 13 13 14 15 15 15 15 15 16 16 18 19 19 19
26 18 19 26 27 31 10 13 12 13 16 4 8 6 11 12 10 11 11 9 7 4 1 2 4 6 6 7 9 11 13 14 15 16 16 16 17 17 19 19 20 21 23 24 24 24 24 23 22
19 12 12 10 9 21 10 12 12 12 9 10 8 7 8 7 6 6 5 4 1 1 5 7 8 10 9 14 13 14 15 16 17 19 20 21 22 23 21 25 25 26 26 25 25 26 26 26 27
24 12 21 21 20 15 12 11 8 8 10 11 9 8 7 6 5 3 1 2 4 6 8 10 11 11 13 14 16 18 20 20 21 22 23 24 25 26 26 25 26 26 28 30 31 31 30 29 29
9 13 24 21 17 14 15 11 10 9 9 10 9 6 2 2 1 3 4 5 5 8 9 8 11 13 16 19 20 21 22 23 23 25 26 28 28 27 28 28 29 30 32 35 36 37 37 36 34
12 20 23 19 17 16 14 11 7 9 8 6 4 3 2 4 5 5 4 6 9 7 10 11 15 16 20 22 23 24 26 27 29 28 30 31 31 31 31 33 36 38 39 40 41 40 40 37 34
14 14 14 16 15 11 8 9 8 7 6 5 6 3 3 4 4 5 7 9 11 13 13 15 17 20 24 25 26 29 30 32 32 32 33 34 34 34 35 37 39 40 40 42 39 36 34 33 32
11 14 15 13 10 9 7 6 7 6 5 5 6 6 5 6 6 8 11 13 16 19 21 21 23 23 26 27 29 31 33 35 35 36 35 34 35 38 41 42 41 41 39 38 37 36 36 36 36
10 8 4 2 2 2 5 6 9 6 9 8 6 8 9 9 12 14 13 18 20 24 24 22 23 27 28 29 31 34 35 37 40 41 41 41 41 43 43 43 41 39 40 41 41 41 40 41 42
7 4 3 0 4 5 6 8 15 8 8 8 9 9 10 16 17 23 18 21 24 23 20 15 32 32 31 34 35 38 39 42 45 45 48 47 45 47 45 45 44 43 45 47 50 51 51 50 51
8 2 4 13 9 6 6 2 16 13 12 10 11 13 12 16 22 24 27 23 25 24 27 32 36 36 39 39 40 41 45 47 49 51 53 51 52 51 50 49 48 48 50 53 56 56 56 57 57
7 2 14 14 7 8 8 10 13 13 14 13 13 15 19 23 21 29 25 27 26 27 31 34 39 40 41 45 45 48 49 50 52 53 57 54 55 53 53 54 54 55 57 60 61 60 60 60 62
15 13 8 11 9 9 11 12 22 12 17 17 19 19 21 28 27 28 26 29 29 32 34 39 40 43 45 46 50 51 53 55 56 57 57 55 57 55 57 58 59 61 64 65 65 66 65 66 68
17 14 12 13 9 10 14 13 20 13 18 20 19 20 26 27 26 26 29 30 32 35 38 41 44 46 46 49 52 52 54 56 57 57 57 57 60 59 60 62 65 68 69 69 69 69 69 70 69
12 12 12 13 11 10 13 15 24 19 18 22 24 25 27 27 28 28 30 33 36 39 41 44 46 48 48 52 55 54 54 54 55 58 60 60 60 64 68 71 72 72 72 71 73 74 77 75 73
15 8 14 14 15 12 11 9 28 24 26 23 25 27 29 30 30 31 34 37 39 41 43 45 49 50 51 51 51 52 53 56 58 59 61 64 67 70 72 74 76 77 75 74 76 76 75 76 75
17 16 17 17 17 17 16 13 23 31 34 31 25 27 30 33 35 37 38 40 41 42 44 47 50 52 50 49 51 54 55 57 60 63 65 68 70 73 76 78 79 78 77 79 79 76 76 77 76
19 20 20 20 19 18 11 15 22 17 33 21 29 29 33 36 38 40 41 45 44 43 43 44 46 48 51 52 53 54 57 60 63 65 69 72 76 78 79 80 80 80 82 85 86 84 84 78 78
12 12 12 10 10 11 15 13 28 28 28 37 39 36 37 38 37 41 43 45 47 48 43 41 43 47 50 54 59 63 64 66 70 73 76 79 80 80 79 80 80 82 85 86 87 88 85 84 82
9 9 8 9 10 13 15 17 30 26 28 33 37 37 36 35 39 43 44 44 43 42 43 45 47 50 55 58 62 66 70 72 76 79 82 82 78 78 78 79 81 84 87 87 86 87 86 85 84
11 12 13 15 16 17 14 20 28 29 29 32 35 34 39 37 39 41 41 40 40 43 45 49 52 55 59 62 64 68 72 77 81 81 80 78 77 78 80 83 87 84 85 85 83 82 80 78 75
12 13 15 18 21 19 10 16 24 35 38 39 39 41 35 37 38 38 37 40 43 46 48 51 55 59 64 69 73 78 82 84 81 78 79 78 77 78 80 81 83 83 82 79 75 68 62 57 54
16 18 18 20 24 25 23 22 33 36 37 38 44 45 38 33 37 38 39 41 43 47 52 56 62 66 71 76 80 81 83 82 78 77 77 76 78 80 81 82 81 81 76 69 60 54 48 45 45
16 20 23 24 24 27 28 22 31 32 35 36 39 36 31 33 35 38 41 45 49 54 60 65 70 76 79 81 84 82 80 80 78 77 78 79 79 79 78 78 76 67 60 55 51 47 47 47 47

GFSSGP_500_spd_027.txt.gz
Wind_Speed
17 16 14 12 12 18 15 16 25 25 27 26 26 21 24 25 22 24 20 21 18 24 26 25 20 12 10 10 7 6 4 2 4 6 7 8 8 8 7 6 7 8 7 8 9 10 11 10 12
16 14 12 9 10 18 22 24 31 25 22 27 24 26 23 24 25 26 25 22 27 24 20 14 11 9 11 10 8 4 2 1 3 6 9 10 9 8 8 7 7 7 7 7 7 9 9 11 12
12 11 11 17 23 18 21 26 28 22 27 27 28 25 20 19 17 22 22 22 23 14 11 9 8 7 6 4 2 1 2 5 6 5 6 7 8 9 9 9 9 9 9 9 8 8 8 8 9
20 18 21 17 18 21 22 28 26 27 30 30 29 26 20 11 16 20 18 14 11 10 8 5 2 2 4 7 8 8 7 5 2 1 3 4 5 6 6 6 6 7 7 6 7 8 9 8 9
16 16 22 17 15 14 17 25 28 27 31 34 30 12 13 11 14 10 7 11 10 9 7 7 7 8 9 7 7 5 2 1 3 5 6 7 7 7 8 9 9 10 10 11 11 12 13 13 14
18 28 21 23 20 19 19 22 20 27 30 32 25 11 9 9 7 8 9 10 9 10 9 8 7 5 4 3 2 1 4 5 6 7 8 9 10 11 10 12 12 13 13 13 13 14 15 16 17
23 23 21 18 19 21 22 24 35 39 39 29 16 8 5 6 7 9 12 12 12 11 8 6 3 2 2 4 5 6 8 9 12 12 12 13 13 15 16 17 18 19 19 21 22 23 22 22 21
26 25 22 19 23 26 27 28 30 33 27 15 8 6 5 10 11 15 15 13 10 7 5 2 2 3 5 7 10 12 13 14 15 15 16 16 16 19 20 20 20 21 21 21 22 22 21 23 23
20 20 10 14 24 27 29 25 22 19 14 9 5 7 7 10 12 11 10 8 7 2 4 3 4 7 8 10 12 13 16 18 20 19 20 20 20 21 25 25 24 23 22 22 23 25 26 26 27
20 10 15 19 20 20 19 19 19 12 8 6 6 6 8 8 6 5 5 4 1 2 1 4 6 7 11 13 15 16 18 20 23 24 24 24 24 24 23 24 25 26 27 28 30 31 32 33 32
20 14 23 23 26 23 19 10 10 8 6 7 7 5 6 6 6 6 5 2 2 2 5 9 10 12 11 10 15 18 21 21 24 27 27 26 27 28 28 27 27 29 32 33 34 35 36 36 35
15 18 24 20 24 21 11 7 5 1 3 6 5 3 5 6 6 5 3 4 4 6 6 14 14 14 15 18 21 22 22 25 25 26 29 30 31 31 31 32 33 35 36 37 37 36 36 33 30
24 18 16 22 19 7 4 4 4 2 3 1 3 4 4 6 5 4 7 5 7 9 13 18 22 21 21 28 26 25 27 30 32 31 32 33 33 35 35 36 38 39 39 39 38 37 34 33 32
11 7 9 9 10 6 3 3 5 2 6 5 5 3 4 6 5 7 11 13 16 18 19 18 26 27 15 22 25 29 31 34 36 35 36 38 37 40 40 40 40 38 37 36 35 34 34 34 36
12 13 12 10 6 1 1 4 8 4 6 5 8 10 8 8 10 10 12 18 21 22 25 29 20 18 14 21 28 33 32 34 38 40 42 43 41 43 44 43 41 39 38 39 40 41 42 44 44
10 7 9 7 5 1 3 7 7 5 6 7 6 10 14 14 19 18 20 19 21 26 23 29 34 35 16 35 35 36 39 40 43 50 49 47 45 44 46 46 46 45 43 44 45 47 49 52 53
13 9 4 7 6 1 5 10 11 10 5 7 11 12 11 17 21 25 23 20 21 25 26 28 34 35 36 39 40 44 43 46 51 53 54 54 52 48 47 49 51 51 51 52 53 54 57 59 60
12 4 3 14 4 3 6 10 13 15 5 9 14 16 21 22 26 25 26 24 26 28 28 32 35 40 43 46 46 46 49 50 54 55 54 53 52 51 54 56 55 57 58 59 60 63 65 64 64
17 16 16 13 3 5 7 11 18 18 14 16 18 20 23 27 25 27 29 30 27 30 33 36 40 42 45 47 49 51 52 54 55 55 53 53 55 56 57 58 60 62 63 64 66 68 70 70 72
14 18 16 13 6 8 9 15 18 19 18 20 17 19 23 25 26 28 29 31 32 34 38 40 41 44 47 49 50 51 53 53 53 53 56 57 58 60 62 63 65 66 67 69 71 74 75 77 80
12 14 14 15 8 8 11 17 20 18 17 18 17 20 21 22 23 26 31 32 34 38 40 43 44 46 48 49 50 49 48 49 51 54 56 59 62 64 66 68 70 73 76 78 81 82 82 81 78
11 8 12 12 12 13 15 18 24 22 20 22 25 22 26 25 25 25 31 35 39 41 42 44 46 45 45 47 47 47 48 50 53 56 59 60 63 67 72 74 77 80 82 83 85 84 82 81 80
11 13 14 15 15 17 17 18 23 28 31 26 28 27 26 25 29 32 35 37 38 40 43 44 45 46 47 43 43 45 49 53 56 59 63 66 69 72 75 79 81 82 83 82 80 81 80 79 80
16 17 17 19 20 17 15 19 30 31 30 31 22 22 30 36 39 39 39 39 39 39 39 39 40 45 47 48 50 51 53 55 59 64 68 72 75 78 80 82 83 81 80 81 81 81 81 82 83
10 10 10 10 9 10 12 21 24 23 29 35 34 37 42 39 39 40 43 44 43 41 38 38 39 41 44 46 51 55 61 65 70 75 79 80 82 83 84 82 80 79 80 80 79 80 81 82 81
7 7 8 8 10 9 14 21 23 24 29 34 36 39 38 34 37 41 44 42 41 42 42 42 43 44 46 50 55 59 66 72 76 79 80 82 82 81 78 77 78 78 78 79 80 80 80 81 81
7 9 11 11 12 11 16 22 26 24 31 36 33 39 40 43 39 40 42 39 38 38 41 42 45 49 54 59 65 70 75 78 81 81 82 80 78 78 77 78 79 79 79 79 78 77 75 70 65
9 10 12 13 14 10 13 24 30 29 30 36 43 46 48 44 40 36 36 37 39 39 43 47 51 56 62 68 72 75 78 81 83 83 81 79 79 79 80 80 78 77 77 75 72 67 59 54 50
10 16 19 19 21 20 13 22 28 31 36 37 41 46 43 34 32 34 33 35 38 43 46 51 56 62 68 72 76 81 83 86 85 81 80 82 82 82 79 77 75 72 70 67 63 56 51 47 44
11 16 19 20 22 22 22 14 23 30 34 37 34 35 39 32 32 32 35 39 44 49 54 59 63 69 73 77 80 84 86 85 83 79 79 81 81 77 74 70 67 65 61 57 53 51 47 45 46

GFSSGP_500_spd_030.txt.gz
Wind_Speed
25 28 18 18 20 20 24 24 24 24 26 27 27 29 23 24 25 27 24 21 24 24 25 26 21 16 13 11 12 9 8 6 7 6 6 8 8 8 8 8 9 9 9 9 8 9 10 11 13
26 16 17 25 19 25 27 29 26 20 29 26 28 23 24 29 31 30 26 28 28 29 26 18 14 12 12 13 10 7 6 4 1 5 7 9 9 8 7 7 7 7 7 8 8 9 9 10 11
16 21 19 18 24 28 28 30 26 25 23 21 21 21 25 28 32 32 30 30 28 24 16 14 10 9 7 3 1 2 3 6 3 2 3 4 4 4 3 4 5 6 7 9 10 10 10 11 11
17 12 18 28 34 29 24 25 28 28 26 27 23 23 22 29 30 32 29 26 21 16 13 10 5 2 5 6 7 7 5 2 1 3 5 6 6 6 7 7 8 9 10 11 12 13 14 14 15
25 28 33 25 26 31 17 22 22 25 19 22 25 22 28 27 23 24 23 18 15 13 9 4 7 8 7 6 5 3 2 2 4 6 8 9 10 9 11 12 13 13 14 14 15 15 15 14 16
11 17 23 23 23 27 22 22 17 16 21 25 27 24 29 22 19 19 17 14 13 10 6 9 8 7 5 2 1 3 4 6 7 10 12 13 15 14 15 16 17 17 19 19 20 21 21 21 22
27 22 22 20 13 14 17 18 18 20 20 26 31 25 25 14 16 14 12 12 10 10 11 10 7 5 3 4 6 7 8 10 12 14 15 17 18 19 19 19 21 22 22 23 22 22 22 21 20
33 30 25 22 22 18 18 21 24 26 22 19 10 16 14 9 8 8 10 12 13 11 8 6 4 5 6 8 10 12 12 13 14 17 18 20 22 23 23 24 25 24 24 25 24 23 23 23 24
37 31 28 27 25 22 16 22 28 29 26 12 9 10 10 8 9 10 12 11 9 8 7 6 7 9 11 12 11 11 13 16 18 18 20 22 23 25 27 27 26 26 25 25 26 26 27 28 29
27 30 27 24 21 19 14 16 23 26 21 9 9 8 8 8 9 9 7 7 5 5 8 8 9 12 11 10 11 13 16 19 20 21 21 22 23 24 25 27 27 27 27 28 29 31 32 32 33
26 26 14 14 12 13 12 21 21 11 7 7 8 5 4 8 8 7 6 5 5 8 11 10 10 13 14 14 14 18 21 22 23 25 23 24 24 26 29 29 30 31 32 34 35 36 36 35 34
17 10 11 16 16 14 16 10 4 2 4 6 6 6 6 7 5 4 3 3 6 9 11 13 14 14 14 15 17 19 22 23 25 29 28 28 28 31 34 33 34 35 35 37 36 36 36 36 34
16 18 17 15 17 13 12 6 8 9 8 8 5 4 6 5 5 4 3 5 9 12 14 20 19 18 27 21 20 26 24 24 26 28 29 27 31 35 38 38 39 39 37 35 33 32 32 32 31
14 19 13 17 15 8 7 5 3 3 4 7 7 6 5 5 7 6 4 7 10 11 12 17 21 20 19 13 34 27 29 28 33 35 33 35 40 39 41 40 39 37 35 33 34 35 34 33 35
20 15 14 12 10 7 4 3 1 3 4 3 5 6 6 9 9 7 10 11 15 18 16 20 19 19 20 16 28 29 36 37 39 38 43 42 42 41 40 40 40 39 40 39 39 41 41 43 44
18 18 18 12 7 6 5 2 5 7 4 5 5 6 9 11 10 10 10 14 17 20 23 24 26 20 26 29 32 32 37 41 42 46 46 46 43 40 37 38 42 43 44 45 46 47 47 48 50
16 19 17 12 8 1 4 4 8 8 4 3 6 9 11 14 16 13 15 16 19 24 28 27 28 31 33 35 38 40 41 41 44 48 49 47 44 43 43 43 43 45 48 50 52 53 55 56 56
12 12 15 9 4 3 9 10 10 4 4 6 11 13 15 17 22 24 24 21 23 23 27 29 31 36 40 42 42 44 44 46 49 49 48 47 47 48 48 50 51 52 53 54 56 58 61 63 64
8 7 6 3 4 1 12 16 13 11 5 7 12 15 20 21 22 25 26 25 28 29 32 31 40 43 46 49 49 49 51 52 52 50 48 48 49 51 54 56 58 60 62 63 65 67 69 72 74
12 11 9 3 7 7 11 13 16 16 18 17 18 17 17 21 23 24 25 23 26 31 34 41 44 48 51 51 51 52 53 53 52 52 52 54 56 58 60 63 66 69 71 74 75 75 77 77 78
16 16 12 12 9 12 16 16 16 19 20 19 15 12 17 18 19 21 23 27 29 33 37 40 44 46 48 49 50 51 50 48 49 51 53 55 58 61 65 70 74 76 78 81 83 84 86 86 85
7 10 14 15 13 15 19 23 22 23 23 23 15 17 19 24 27 23 23 27 32 36 38 40 43 46 48 49 49 47 47 49 51 52 55 59 63 68 72 76 78 81 83 86 88 88 86 85 83
9 12 13 15 18 16 20 24 28 29 28 26 20 15 16 24 26 22 32 33 36 37 40 42 44 46 46 43 41 42 45 47 49 54 58 61 67 71 75 78 81 82 84 83 82 81 80 81 81
14 15 17 18 19 19 23 26 30 30 27 28 24 21 23 30 28 34 39 37 39 39 42 45 46 44 42 41 41 41 45 50 56 62 67 71 74 78 81 82 84 84 83 82 81 80 81 81 82
8 7 7 9 9 12 14 20 28 28 30 28 25 25 30 36 34 35 34 40 39 44 43 40 39 38 38 38 42 47 53 58 65 70 74 78 81 84 86 87 85 82 80 80 81 82 83 84 84
4 5 6 8 9 11 15 20 23 29 29 35 36 28 33 37 35 32 41 46 44 39 34 33 32 33 36 41 47 53 59 66 71 75 79 83 86 89 89 86 83 82 82 82 84 85 84 83 82
1 2 2 4 6 11 17 21 25 28 31 32 31 33 31 46 43 44 43 39 36 35 33 35 38 41 46 52 57 62 68 72 77 81 85 87 88 88 86 85 86 84 84 84 83 81 76 71 68
2 6 9 10 10 14 18 22 24 26 30 34 37 41 43 44 42 40 32 33 32 34 37 41 45 49 55 58 63 68 73 77 82 85 86 86 86 87 87 86 85 82 80 74 69 67 62 60 58
2 6 10 14 15 17 20 22 23 25 30 32 34 36 38 38 32 33 35 34 35 38 43 46 50 54 59 65 69 73 78 82 85 85 83 84 87 88 87 85 81 73 60 62 62 60 56 56 56
4 7 11 13 17 21 20 22 27 29 32 34 33 32 29 29 32 32 33 36 39 43 47 51 56 61 66 69 73 77 82 84 85 87 88 89 92 92 87 78 68 60 63 66 72 68 57 53 49

GFSSGP_500_spd_033.txt.gz
Wind_Speed
34 34 47 37 23 24 30 29 30 27 29 27 22 22 22 20 21 27 24 28 30 29 27 27 27 25 19 13 11 11 9 7 6 4 6 7 7 7 7 7 7 7 8 8 10 11 12 14 15
20 20 25 29 23 27 32 28 27 29 27 27 25 23 17 19 21 28 25 33 32 30 29 25 23 18 12 9 8 5 4 2 3 2 1 2 3 4 4 5 5 6 8 8 9 11 12 13 14
27 28 31 24 28 30 28 30 27 26 26 30 27 27 25 25 20 27 31 36 37 35 32 22 18 11 5 3 0 2 4 5 4 4 5 5 5 6 7 8 9 10 12 13 14 14 16 16 17
26 25 17 20 30 34 34 32 27 25 26 26 29 27 18 19 23 30 37 39 37 33 23 17 10 3 4 6 7 6 6 6 6 8 8 9 9 10 11 12 14 15 17 16 17 18 18 19 19
22 24 26 25 30 28 32 33 29 25 21 32 13 17 17 23 27 33 38 36 31 22 16 10 6 9 9 8 7 6 7 8 9 11 11 13 14 15 17 18 19 20 21 22 22 23 23 23 24
25 28 22 23 29 33 24 22 20 26 26 18 15 16 24 27 32 34 30 25 18 15 12 9 12 11 8 6 7 8 9 10 11 13 15 17 19 20 21 21 22 23 24 25 26 26 27 27 27
23 26 30 28 32 32 29 19 17 14 15 15 16 21 27 28 29 25 23 18 15 12 11 13 10 8 7 8 10 11 11 12 14 16 18 19 20 22 24 24 26 28 29 30 30 29 28 27 27
26 31 35 28 29 14 25 22 25 18 15 16 16 23 28 25 23 20 19 14 12 12 12 10 10 10 9 11 12 12 13 13 15 17 20 21 24 25 26 26 27 28 29 28 29 29 28 27 27
34 25 23 22 17 12 15 15 10 18 20 20 19 19 19 13 5 6 10 11 12 12 10 11 12 11 12 13 13 14 14 17 20 22 22 23 23 23 24 25 27 28 28 28 30 30 31 31 31
29 18 22 18 13 13 14 15 10 19 17 15 16 16 12 7 4 7 9 10 10 9 10 11 11 12 13 13 15 17 18 21 22 23 23 24 24 25 26 27 28 30 31 31 33 34 35 36 35
33 24 21 20 20 21 10 11 17 14 8 4 9 11 7 6 6 8 8 7 7 9 11 10 11 13 14 16 18 21 21 24 25 24 26 27 27 27 28 29 31 31 32 33 34 35 35 35 34
30 22 20 21 15 5 4 10 13 4 3 3 7 7 6 6 7 7 7 5 7 10 9 9 14 16 18 17 18 23 20 27 24 26 28 26 26 28 31 36 36 33 33 33 32 31 29 29 30
10 14 16 13 8 9 8 9 7 3 6 6 7 7 7 7 9 7 5 4 7 9 12 14 15 18 21 19 18 24 26 26 29 25 31 32 28 33 35 37 37 34 31 31 30 28 28 29 29
9 11 12 7 10 12 9 9 7 10 10 11 8 6 7 7 6 6 4 5 7 11 15 19 18 19 17 16 22 16 22 28 28 30 34 33 39 38 37 38 38 34 32 31 32 32 32 32 32
8 11 9 8 8 8 10 10 10 10 10 11 10 9 7 7 6 6 6 10 13 15 18 18 18 18 21 17 18 25 31 34 34 36 36 38 42 41 40 35 35 37 37 37 37 37 39 40 39
11 11 14 11 12 12 9 9 9 5 6 7 8 9 10 8 8 7 11 15 16 18 20 21 24 22 23 24 26 33 37 38 40 40 42 46 44 42 39 38 38 39 41 43 44 44 45 47 48
16 20 16 13 8 11 10 7 7 3 8 9 8 10 10 9 11 13 13 15 18 20 21 21 16 26 23 23 39 42 43 43 41 44 48 47 45 41 39 38 40 41 43 44 47 49 51 52 53
19 20 17 15 8 9 8 5 3 4 7 10 8 10 11 12 11 16 18 17 22 23 21 17 27 27 34 42 44 46 45 46 45 48 47 47 44 44 43 43 44 46 50 53 56 58 59 60 61
21 25 18 10 5 4 7 6 4 7 8 10 8 12 14 16 19 19 20 23 23 19 19 25 28 37 44 46 48 49 50 52 52 52 50 46 46 46 47 50 54 58 61 63 65 65 67 68 70
15 10 14 3 3 8 7 11 13 12 11 12 14 14 14 14 20 24 23 25 22 22 28 32 38 43 46 49 50 52 53 54 54 52 50 49 48 51 55 59 63 67 69 72 75 77 78 79 80
15 13 10 8 10 11 14 15 15 16 17 17 15 14 15 18 24 23 26 22 22 26 31 35 41 46 48 50 52 53 54 54 51 49 48 49 53 57 62 67 70 74 77 79 81 83 85 86 86
14 13 13 13 14 18 21 23 20 19 20 21 21 18 19 20 23 26 25 28 27 31 38 43 45 49 49 50 52 53 52 50 50 51 54 58 61 65 69 73 76 78 81 83 84 85 86 86 85
10 11 12 14 16 18 25 27 25 25 25 25 24 24 25 23 28 26 27 32 36 39 42 42 46 48 52 51 49 45 44 45 49 52 56 60 64 69 72 75 79 82 84 86 87 86 85 84 84
10 11 14 18 20 24 27 32 30 28 27 26 25 25 30 27 24 26 30 34 38 40 39 43 47 51 45 42 41 41 44 48 52 56 61 65 69 73 78 82 85 87 87 86 86 86 87 87 89
13 15 15 15 15 18 19 22 22 22 22 23 26 27 27 28 29 31 37 37 36 36 44 46 43 40 37 37 40 43 48 53 58 63 68 71 75 79 83 86 87 86 85 86 87 88 88 87 87
8 8 9 10 10 12 14 18 20 22 25 28 29 30 30 26 30 32 31 41 36 44 43 41 36 33 35 39 43 48 54 58 63 66 70 76 82 87 89 90 91 92 92 92 93 96 91 85 80
5 4 2 5 8 10 13 15 19 21 24 26 28 27 24 27 35 40 44 47 44 44 42 33 34 37 40 44 49 54 59 64 69 74 79 84 88 90 91 93 93 96 98 99 98 93 81 67 66
7 2 1 4 7 10 12 14 15 17 19 21 25 27 29 29 32 36 38 38 40 35 32 36 40 43 47 52 56 61 65 70 76 80 83 87 90 91 93 96 98 100 99 94 78 63 62 63 65
5 2 2 5 8 13 16 17 17 20 20 19 19 20 22 25 29 31 33 34 34 34 39 42 45 48 53 57 62 66 70 74 78 81 86 89 93 96 99 100 99 97 81 60 59 65 67 65 65
7 6 7 10 13 16 18 19 20 21 20 20 22 24 27 31 34 35 35 36 36 40 43 46 49 53 58 61 65 70 74 79 83 88 91 95 97 99 98 99 96 84 64 54 58 64 62 62 69

GFSSGP_500_spd_036.txt.gz
Wind_Speed
31 32 33 35 38 41 40 33 34 31 33 35 31 24 26 31 22 21 17 21 24 25 30 31 27 29 27 19 11 7 4 3 2 2 2 3 4 4 5 6 7 8 9 10 11 12 13 13 13
28 32 34 30 40 35 29 23 26 27 27 25 23 27 24 22 21 13 18 17 21 28 32 31 32 26 21 12 7 2 1 2 2 2 2 2 4 5 7 8 10 11 12 13 14 15 16 17 17
31 30 28 24 26 32 28 22 27 30 28 27 30 25 17 19 14 15 15 19 25 32 35 31 25 19 12 6 2 4 4 5 5 5 6 8 9 10 11 12 14 16 17 18 19 20 21 22 21
24 24 24 18 15 31 30 27 28 29 32 31 30 34 31 35 26 15 17 24 28 34 34 24 19 12 6 5 5 6 6 6 6 8 10 11 13 14 16 18 19 20 21 23 23 24 23 25 25
26 28 31 24 25 27 27 30 32 38 21 27 37 21 22 13 9 15 21 25 28 28 23 18 13 9 9 9 8 7 7 8 9 11 13 15 17 19 19 21 22 24 24 25 25 27 28 29 28
28 19 22 26 25 32 31 29 32 25 24 16 20 22 16 14 18 23 27 26 23 18 15 12 10 10 10 9 9 9 9 10 12 14 15 18 19 21 22 24 26 27 28 29 30 31 32 32 31
23 25 25 27 26 28 35 25 21 28 23 22 16 14 16 19 21 24 23 21 17 14 12 11 12 12 11 10 10 11 11 13 14 16 18 20 22 24 26 28 27 27 26 26 27 28 28 28 29
23 34 30 21 31 20 23 25 19 13 13 10 11 15 19 20 20 19 19 18 16 13 11 11 12 10 12 12 12 12 13 15 16 18 21 24 26 27 27 27 26 26 26 27 28 27 27 27 28
26 26 25 23 19 19 24 25 23 24 7 13 12 16 16 15 14 13 13 15 13 9 9 10 10 11 13 12 14 15 16 16 17 20 23 25 26 28 29 29 28 28 28 31 31 30 31 32 32
28 31 27 23 28 22 16 15 8 12 11 9 12 14 10 5 4 2 4 7 7 7 7 7 9 10 13 14 15 18 20 19 19 20 25 24 27 30 29 29 30 29 32 35 34 34 33 33 35
29 26 21 16 11 13 11 7 14 14 7 5 8 8 7 8 6 4 3 4 4 6 7 8 9 11 13 15 18 20 22 25 22 24 26 26 24 28 30 30 33 35 38 37 37 34 33 32 31
28 25 18 18 16 14 4 12 10 3 1 2 6 9 8 8 6 5 4 6 8 7 5 7 11 15 18 19 21 22 23 29 28 25 31 26 26 28 29 34 38 38 36 36 35 32 30 29 28
26 9 5 5 2 1 8 4 3 3 5 6 7 7 7 6 5 5 4 6 7 6 8 11 16 19 21 21 23 23 23 22 25 30 29 28 29 32 32 38 40 40 36 33 32 30 30 28 28
16 10 6 5 2 2 4 6 5 6 8 9 7 7 6 5 3 2 2 5 7 10 14 17 20 24 24 24 20 20 14 17 23 29 30 32 33 34 38 42 42 40 36 35 34 32 32 32 32
8 9 12 7 7 10 9 8 9 10 12 12 11 10 9 7 1 1 3 9 12 14 17 20 24 26 22 21 20 18 21 20 28 33 34 34 37 40 44 43 39 38 37 37 36 36 34 36 38
5 7 7 4 8 11 13 13 13 12 12 14 13 12 12 9 6 8 12 12 14 17 19 25 24 24 24 24 30 18 30 31 35 35 36 41 42 44 44 42 39 38 38 38 37 39 42 45 48
7 11 6 8 13 14 14 13 13 11 13 9 9 11 8 7 8 11 11 14 14 18 20 22 23 20 32 22 27 36 39 41 38 40 44 46 47 47 45 42 40 39 39 42 44 49 52 53 54
9 14 14 15 16 17 15 15 13 11 8 9 9 9 9 8 10 11 12 13 14 18 21 20 18 31 29 33 40 44 46 47 48 50 50 50 51 49 46 43 40 42 46 50 53 57 59 62 65
15 18 16 17 15 14 12 11 9 8 7 7 7 10 12 12 12 13 15 20 21 20 19 18 21 36 37 39 45 46 46 53 53 53 52 51 50 46 43 44 49 53 56 60 63 65 69 71 73
20 23 20 14 10 10 7 9 5 7 7 8 9 11 13 14 15 17 16 20 21 19 20 28 34 39 45 47 50 52 53 53 55 54 52 50 46 45 48 53 58 62 66 69 72 74 77 79 81
22 23 22 18 13 11 10 10 11 12 12 12 15 15 16 17 20 21 21 24 28 28 29 33 36 39 45 49 50 53 55 56 54 51 48 46 49 55 59 63 66 69 72 74 76 78 80 82 83
17 18 18 13 12 14 15 19 16 15 18 19 20 21 20 23 26 27 25 29 31 29 33 37 40 44 48 50 53 55 54 50 49 47 49 53 56 58 61 65 68 71 75 77 80 82 84 85 88
13 13 12 13 14 16 18 20 18 21 22 24 25 26 26 26 29 27 30 33 28 33 38 42 43 46 45 50 52 49 46 46 47 50 53 55 58 62 66 69 73 75 79 81 85 87 90 92 93
14 14 14 15 17 20 21 24 21 20 21 23 24 25 27 27 28 27 30 31 30 39 46 47 37 49 47 46 48 47 44 45 48 51 55 59 64 67 70 74 77 81 85 90 92 93 95 96 96
14 15 16 17 17 16 16 17 15 15 17 18 21 22 25 27 29 29 30 31 34 40 40 51 45 48 45 45 44 44 46 49 52 56 60 64 67 71 76 81 84 87 90 93 94 97 99 100 99
15 14 12 11 11 11 11 9 10 11 14 15 18 20 21 23 26 27 28 34 39 47 49 49 48 46 43 41 44 47 50 52 56 60 64 68 74 79 82 86 90 92 93 96 100 102 103 103 95
11 9 7 6 6 6 7 7 7 8 8 8 10 12 14 16 19 25 32 37 40 43 45 47 48 42 41 44 46 49 53 57 61 64 69 75 80 83 86 90 93 95 98 103 105 105 103 87 73
10 8 5 4 3 3 7 10 10 11 14 16 17 18 19 21 23 27 32 36 39 42 44 45 40 42 45 46 50 54 58 62 67 71 75 80 83 87 92 95 97 100 102 104 106 95 79 68 54
11 8 6 5 6 10 12 11 11 13 15 16 18 21 23 24 26 29 32 35 38 40 41 40 42 46 48 52 56 59 62 67 72 76 81 84 88 93 97 98 100 103 105 106 88 74 68 54 55
12 10 8 10 13 14 15 13 15 16 18 20 22 25 26 27 29 31 34 36 39 42 43 45 47 50 53 56 59 62 67 73 77 81 86 89 92 95 96 97 99 101 102 86 72 66 54 57 61

GFSSGP_500_spd_039.txt.gz
Wind_Speed
26 28 30 31 31 31 34 33 44 43 39 40 39 29 29 30 30 32 27 23 20 20 18 20 25 28 25 22 18 10 5 6 8 5 3 2 1 3 6 8 11 12 14 15 16 16 16 15 14
26 27 30 29 29 28 29 29 42 38 35 29 38 34 33 36 40 35 24 21 17 11 17 22 25 24 20 16 11 6 6 7 6 3 2 3 5 8 10 11 12 14 16 17 19 20 21 20 20
25 24 24 25 26 22 28 28 25 29 26 24 24 29 33 33 24 32 29 11 10 16 20 22 19 17 14 11 5 5 7 7 5 4 6 8 9 11 13 15 17 18 21 22 23 24 24 24 24
24 24 24 25 20 23 27 27 26 29 29 27 30 25 27 13 23 22 14 6 12 17 20 19 16 12 12 7 6 7 7 7 7 7 8 10 13 15 17 18 20 21 22 24 25 27 28 28 28
24 25 21 22 24 17 20 27 33 34 31 26 30 23 24 19 34 26 6 9 15 16 16 14 11 10 10 9 8 7 7 8 8 9 12 14 16 18 21 23 24 26 26 27 28 28 28 29 30
14 24 24 26 27 18 22 21 27 28 29 27 11 27 28 16 15 12 9 9 14 12 10 10 9 9 11 8 7 7 8 10 11 13 15 18 19 22 25 27 27 27 26 25 25 25 25 24 25
17 22 25 27 23 22 26 24 22 28 21 22 19 14 8 11 12 9 11 9 8 7 7 8 11 11 10 8 8 9 11 12 14 16 17 18 22 24 26 27 27 27 26 27 27 27 28 27 26
14 23 24 24 19 19 28 29 32 27 17 16 3 2 8 8 9 9 9 9 6 6 7 8 9 10 9 8 9 12 13 15 16 17 18 20 22 23 25 25 26 27 26 28 29 28 30 31 30
19 20 25 23 19 19 25 20 19 30 21 5 5 7 6 7 8 6 7 7 7 6 7 8 10 8 7 8 12 14 15 16 17 19 20 20 24 27 26 26 26 28 28 30 33 36 36 35 35
18 23 24 29 23 26 8 11 18 18 12 3 4 5 1 1 0 2 5 4 5 7 7 6 5 6 9 14 15 15 16 19 21 21 21 21 22 28 31 30 29 29 31 35 36 38 38 36 35
18 23 19 19 13 8 1 11 10 10 9 5 2 5 5 3 3 4 4 6 7 6 5 5 8 11 13 15 16 17 19 22 22 23 23 23 26 29 29 30 32 32 35 38 39 37 37 34 31
17 19 25 26 21 12 13 9 8 10 8 5 4 6 6 5 5 5 5 4 5 5 6 8 10 13 16 18 19 21 24 25 22 23 23 23 26 30 31 32 34 36 37 40 40 38 36 31 29
15 16 15 14 13 19 11 8 6 6 4 3 3 3 3 3 2 3 4 5 6 6 7 9 13 17 19 21 25 26 28 27 25 21 21 24 29 32 32 32 33 38 42 43 44 41 37 34 31
15 15 1 8 10 8 6 4 3 2 2 2 2 2 4 4 2 3 5 6 7 8 9 11 15 18 22 23 27 29 26 26 25 21 22 27 29 32 33 37 38 40 43 44 43 43 38 35 32
13 13 11 8 6 6 4 4 9 7 5 5 6 5 5 5 5 8 9 10 10 11 13 16 18 19 23 24 29 34 35 28 24 23 24 28 33 38 40 44 43 43 42 42 40 39 37 35 36
6 7 9 6 8 8 8 11 10 8 7 4 7 9 10 8 8 8 10 11 12 14 16 19 21 23 31 28 33 38 35 25 27 35 38 39 42 42 42 44 43 40 39 38 38 37 39 41 44
8 8 5 8 11 10 10 10 9 8 10 8 7 10 11 10 12 14 13 13 14 19 22 23 26 26 29 26 31 21 26 28 44 37 41 43 44 46 45 43 40 37 35 36 39 43 46 49 52
10 7 8 13 13 13 12 11 10 11 9 10 11 10 9 10 11 14 14 15 19 19 20 19 23 28 30 36 35 45 35 32 39 42 47 48 49 47 44 40 37 37 41 44 47 50 54 57 60
13 16 13 16 14 12 10 10 11 13 12 10 7 8 8 10 13 15 16 17 19 19 20 18 25 32 32 42 46 47 47 49 50 51 53 49 46 43 39 38 41 46 50 53 57 59 61 65 67
14 19 15 12 8 9 12 11 10 8 7 7 6 6 9 11 14 15 16 17 20 24 24 25 30 34 38 45 50 51 52 51 51 52 49 46 42 42 46 48 52 56 58 61 63 65 68 69 72
15 19 18 15 13 13 13 10 9 8 7 8 9 11 14 16 18 20 21 22 26 29 32 35 36 37 42 47 48 51 53 56 56 52 52 49 48 49 52 54 56 58 61 63 67 70 73 77 80
15 17 19 20 20 16 15 14 10 8 9 10 13 16 19 20 21 22 22 25 28 30 33 33 35 38 43 48 47 46 55 54 53 50 49 48 51 53 55 57 60 62 66 72 76 79 82 86 89
12 16 16 17 19 19 14 15 10 13 14 17 17 18 19 21 21 22 24 27 26 26 31 35 36 41 48 44 42 52 51 47 48 51 51 53 55 57 59 62 65 69 75 79 83 86 90 93 94
14 13 14 14 15 16 14 16 9 12 13 13 14 16 17 18 19 22 25 27 28 27 34 32 43 35 40 51 51 50 49 48 49 50 53 56 57 61 64 67 72 77 82 86 88 91 94 94 95
16 15 16 17 17 14 11 11 8 9 10 10 11 14 15 17 19 22 24 25 26 33 35 36 42 50 53 52 49 48 48 48 50 53 55 58 61 63 67 72 78 82 86 89 92 93 96 97 98
16 17 17 15 10 7 5 4 5 6 6 6 7 9 11 14 17 19 22 25 28 32 36 39 42 45 46 48 50 50 49 52 54 56 59 61 63 68 72 77 82 86 90 93 94 95 99 102 104
17 16 11 9 5 2 1 0 1 1 4 5 7 9 10 12 15 18 21 23 26 30 33 37 41 43 44 48 49 52 53 54 57 58 60 63 68 72 76 83 86 91 94 95 97 99 101 102 94
15 12 9 7 4 3 2 4 5 6 7 7 9 11 13 15 17 20 23 26 29 32 36 39 42 45 47 49 51 52 55 57 59 61 64 69 74 78 84 89 92 96 96 96 98 101 97 86 72
13 11 10 8 6 6 6 5 7 9 10 12 13 15 17 19 21 23 26 28 30 33 37 39 41 44 47 51 53 55 57 59 61 64 69 75 79 84 89 92 94 94 94 97 99 92 76 62 53
15 14 12 12 11 11 12 10 13 15 16 18 18 19 21 24 26 28 31 33 35 39 41 43 45 47 50 53 56 57 58 60 64 68 74 79 84 89 91 92 93 93 96 97 85 68 53 43 41

GFSSGP_500_spd_042.txt.gz
Wind_Speed
23 25 26 29 29 32 33 35 36 36 28 44 47 41 38 33 34 37 33 36 35 23 23 17 12 16 18 18 16 15 12 10 11 8 5 2 1 4 6 8 10 12 14 15 16 17 17 18 18
22 24 26 28 28 27 21 33 37 32 37 34 44 44 35 31 32 33 39 38 29 27 14 9 12 14 15 14 13 10 7 10 10 7 4 3 4 7 10 13 16 17 18 19 20 21 21 21 22
22 24 27 28 28 21 19 29 31 30 28 25 39 40 40 38 39 38 39 43 35 24 10 8 11 13 12 11 11 5 8 12 10 7 6 5 8 10 13 15 18 21 22 23 24 25 25 26 26
17 21 25 24 19 24 26 28 29 27 24 20 26 22 27 30 41 42 45 30 27 11 5 6 10 11 9 10 8 8 9 10 8 7 6 9 11 13 15 18 20 23 24 25 25 25 25 25 25
16 17 23 23 25 26 23 25 29 27 25 25 30 34 23 28 30 23 26 28 10 4 5 7 9 9 10 10 9 9 8 7 7 7 9 12 14 15 17 20 22 23 23 24 24 24 25 26 25
15 18 19 21 21 19 23 20 27 28 24 24 21 22 29 35 21 15 9 9 6 4 1 9 9 9 11 10 10 8 7 7 7 10 13 15 16 16 19 21 22 23 23 24 24 24 25 24 25
17 17 21 27 24 20 23 23 23 22 26 24 27 30 16 14 7 4 10 7 9 4 9 9 11 11 12 11 10 8 7 9 11 14 16 17 17 20 21 23 27 26 25 23 23 23 24 25 29
18 16 23 26 20 21 25 24 26 23 21 23 25 18 14 6 4 4 3 4 7 9 10 11 13 14 15 11 9 8 10 13 16 17 18 18 20 22 23 23 25 27 27 26 25 26 28 30 30
17 16 13 20 18 16 21 27 28 24 26 21 8 8 4 4 4 2 5 8 9 11 12 13 15 16 12 9 9 12 14 17 18 19 18 20 23 21 20 25 28 30 29 29 29 31 33 35 35
14 14 13 17 20 22 20 22 22 22 23 24 5 9 10 6 6 8 9 12 14 13 13 15 14 11 9 10 13 16 17 18 19 21 21 22 25 23 23 25 27 30 31 34 35 35 35 36 37
13 15 19 19 23 15 12 13 9 8 10 8 8 14 12 5 8 10 12 12 12 13 13 11 9 9 11 14 15 17 17 20 22 24 23 27 25 22 22 26 29 32 34 35 36 36 38 37 35
18 18 17 17 14 14 16 16 10 8 12 13 12 11 10 8 8 8 9 10 11 10 8 8 9 11 12 13 15 17 21 23 25 28 27 28 28 25 24 26 30 32 34 38 39 40 40 39 37
12 18 16 14 18 17 17 14 8 9 11 12 9 6 7 6 4 6 8 10 10 8 7 8 9 11 13 16 18 21 25 27 31 33 31 30 29 26 27 27 33 36 39 41 42 41 40 40 39
18 11 10 17 19 18 18 11 10 11 9 7 4 4 4 5 6 8 7 8 8 9 10 11 11 13 16 18 20 24 30 31 35 35 29 27 25 31 33 34 38 40 41 41 41 41 40 38 37
11 5 5 11 15 11 11 8 6 5 6 3 0 1 3 4 5 7 9 10 11 13 13 12 14 16 18 23 26 29 35 38 34 24 23 29 41 39 40 41 44 43 43 42 39 36 36 36 36
11 9 7 10 6 6 7 10 7 5 5 3 1 3 4 5 7 9 11 11 11 11 13 15 17 19 22 27 32 36 41 34 38 40 36 37 36 40 43 45 43 40 37 36 34 33 34 37 40
3 8 7 7 10 11 10 12 9 6 4 3 4 5 7 9 12 13 14 14 14 16 19 19 20 22 25 31 32 37 35 38 45 40 38 38 42 44 45 42 38 37 35 34 35 38 41 43 46
7 12 10 12 13 11 12 11 9 8 7 4 5 7 10 12 12 15 17 18 20 18 20 23 25 25 29 28 25 35 45 43 43 39 39 40 42 43 41 39 37 36 37 38 42 46 48 51 53
13 12 10 12 10 8 9 9 8 8 7 8 7 8 10 12 14 14 17 19 18 19 21 23 25 29 34 35 36 40 44 46 47 48 49 50 49 46 41 38 38 41 43 47 50 52 55 56 59
7 16 14 13 7 4 7 10 10 9 8 8 11 12 13 13 14 14 15 15 17 20 24 27 30 33 36 38 40 42 45 50 50 48 53 54 52 49 48 49 49 51 52 53 54 56 59 63 68
11 16 16 12 8 7 7 7 9 9 10 12 11 13 14 13 16 17 18 19 20 23 28 30 32 34 36 36 40 45 49 52 51 54 54 52 51 51 53 54 55 55 56 57 59 62 66 69 74
11 11 15 13 11 10 9 8 14 14 13 13 14 15 17 18 19 19 19 19 22 25 28 30 30 32 35 37 43 48 48 50 57 57 52 50 49 51 54 56 58 59 61 63 66 70 74 79 83
14 11 13 13 14 15 19 20 21 15 16 17 18 19 20 19 18 18 18 20 25 28 29 32 34 34 36 41 45 47 53 52 50 51 53 53 53 55 57 60 62 64 65 69 73 77 82 86 89
15 11 11 15 15 17 19 18 14 12 17 18 17 17 17 16 15 17 20 23 22 22 22 22 27 31 35 39 43 46 49 51 52 53 53 55 57 59 62 63 64 66 69 74 79 84 89 92 94
16 16 14 15 17 16 15 15 10 12 13 14 14 14 13 13 14 15 15 14 16 19 22 25 28 31 34 38 42 46 49 52 54 54 57 58 60 62 63 64 66 70 75 79 85 90 93 95 96
18 15 16 17 17 17 13 8 11 11 9 7 6 4 4 5 8 11 14 17 20 23 26 30 32 34 37 40 43 46 49 52 54 55 57 59 60 63 65 67 71 76 81 85 91 94 96 97 97
16 17 17 18 13 11 8 7 5 5 6 6 5 4 5 8 11 14 17 20 23 26 30 33 36 39 41 44 45 47 49 52 55 57 60 61 63 65 68 71 76 81 86 91 93 94 95 96 98
19 17 15 12 11 8 8 8 9 8 8 7 8 10 12 14 16 18 21 24 27 30 34 36 38 41 43 46 47 49 51 53 57 60 61 62 65 68 71 76 81 86 91 92 92 92 95 97 88
19 15 13 13 11 10 8 9 10 9 10 12 14 16 18 19 21 23 25 28 30 33 36 39 41 43 46 48 50 52 55 57 60 61 62 63 67 71 75 81 86 89 91 90 91 94 95 84 69
19 16 16 15 14 13 12 12 14 14 15 16 18 20 23 25 27 29 31 33 35 37 39 42 44 47 49 51 53 55 57 58 60 61 63 66 70 75 81 85 87 88 88 90 93 93 78 64 51

GFSSGP_500_spd_045.txt.gz
Wind_Speed
23 26 29 31 30 30 28 17 31 32 42 36 35 43 46 42 45 47 42 36 33 37 36 35 29 20 13 15 14 16 15 11 10 11 8 5 3 2 3 6 8 10 12 13 15 16 17 18 19
22 25 26 27 27 19 15 20 31 36 39 31 35 38 42 48 45 48 46 37 36 40 38 38 26 16 12 13 13 14 11 9 11 11 8 6 5 5 7 9 11 13 15 17 17 18 19 19 20
19 22 25 24 24 18 13 28 37 41 35 36 37 42 40 45 48 44 41 38 41 43 34 26 12 10 12 13 14 10 9 11 13 12 9 7 7 9 11 13 15 17 18 20 20 20 19 18 18
17 17 21 26 17 14 25 27 40 34 36 32 35 31 36 40 45 52 44 42 44 47 44 23 12 12 13 13 11 10 11 13 14 11 9 8 10 12 14 16 18 20 21 22 21 21 21 19 19
16 15 16 15 16 18 28 36 34 33 37 29 28 26 22 28 35 37 40 32 40 34 30 17 11 12 13 11 11 11 13 14 13 10 8 10 13 15 16 18 20 21 22 24 23 23 22 19 19
15 14 12 11 14 27 24 34 31 26 33 29 24 27 23 24 33 16 23 26 28 24 18 16 10 10 12 11 10 13 13 12 11 9 11 14 15 17 19 21 22 23 26 25 23 22 22 21 20
14 13 10 13 18 29 26 13 23 24 21 22 21 20 29 29 20 21 25 25 21 19 9 8 11 13 12 10 13 12 10 9 9 11 13 16 18 20 22 22 24 24 24 24 25 23 24 25 26
13 16 13 18 19 29 33 34 30 29 25 23 21 28 23 21 20 6 13 16 4 12 13 8 12 14 11 12 12 9 8 10 11 13 15 19 21 22 25 25 25 26 24 25 25 26 27 29 31
13 13 11 19 20 35 21 29 30 27 30 17 25 24 17 19 14 16 9 9 8 10 6 11 14 12 11 11 10 10 11 12 14 16 18 21 23 25 27 28 29 29 26 26 28 28 29 32 35
14 8 11 26 23 16 20 19 29 25 19 24 20 12 9 9 7 8 9 8 12 12 12 11 11 9 10 11 12 12 13 14 15 17 20 24 27 29 28 30 30 31 27 26 32 31 34 37 39
15 11 16 21 18 13 21 21 20 9 14 10 19 13 16 13 10 10 10 12 12 12 10 9 8 9 11 12 12 12 13 16 17 21 24 28 30 31 30 31 33 30 27 32 34 38 40 39 40
15 20 19 18 24 19 9 10 9 7 8 7 8 15 14 12 11 10 10 9 7 6 6 6 9 10 11 11 12 14 17 18 22 27 29 30 31 29 31 27 29 28 25 31 36 41 42 41 40
18 17 21 23 15 16 6 14 24 13 11 12 10 6 7 8 7 6 6 6 6 5 6 9 10 10 10 12 16 18 20 23 27 28 31 34 34 32 29 32 27 28 32 36 40 42 45 45 43
17 21 20 19 17 18 21 4 10 11 10 9 6 4 5 4 4 5 4 5 4 6 7 8 9 11 13 16 19 22 23 26 30 35 38 39 26 27 39 42 39 39 39 43 44 45 46 43 40
21 16 13 21 25 18 19 12 10 8 8 8 6 4 4 3 3 3 4 5 6 7 9 12 14 15 16 19 23 25 28 32 36 39 32 29 33 35 36 41 38 39 40 43 42 43 42 40 38
21 8 9 11 12 14 17 5 8 5 1 2 3 3 3 3 4 6 7 8 8 10 12 12 17 20 22 24 26 33 38 39 42 25 36 32 32 35 37 41 42 45 47 44 40 39 39 37 37
5 3 5 11 9 10 10 15 9 6 3 1 2 3 4 5 8 9 10 10 12 14 15 17 19 22 21 25 29 36 33 27 30 39 40 40 33 34 40 44 45 43 42 39 36 38 39 41 44
7 8 9 4 7 10 11 13 12 6 6 4 4 7 7 9 10 11 12 13 15 17 18 22 24 25 25 29 33 34 37 39 36 39 43 42 39 43 48 49 47 42 41 39 39 42 45 48 50
3 8 9 9 8 8 10 11 9 6 4 6 8 9 11 11 11 13 13 15 17 18 20 23 26 28 30 32 35 37 38 37 39 43 45 43 48 53 51 48 45 43 43 44 47 51 53 52 52
6 7 14 9 6 6 10 11 9 7 7 8 11 12 14 13 14 14 14 15 16 19 23 26 28 31 33 34 36 38 40 42 45 47 48 53 52 49 49 50 49 48 48 50 52 54 55 55 58
10 8 16 7 7 5 8 11 5 9 11 11 13 14 16 16 15 16 18 19 21 22 24 26 28 30 30 32 35 37 38 40 44 48 53 52 52 52 52 51 50 52 54 56 58 59 61 62 65
7 6 11 12 8 8 6 9 23 7 16 15 16 18 19 20 20 22 22 22 23 24 26 27 27 26 26 28 30 32 35 39 41 44 47 50 52 54 54 55 57 59 60 62 63 65 67 69 72
13 4 8 7 8 14 7 13 21 15 23 22 22 23 24 24 25 25 24 22 23 23 20 20 20 21 24 28 30 32 36 39 42 45 49 51 55 56 56 57 59 61 62 64 65 68 71 74 79
10 11 7 10 9 14 10 13 12 20 21 23 25 28 28 26 25 23 22 22 19 15 16 19 21 24 27 30 33 36 40 44 46 49 52 54 56 58 60 61 62 62 64 66 69 73 77 82 87
13 12 9 9 11 11 18 18 15 27 26 27 20 22 21 20 20 19 16 14 14 16 19 22 25 28 30 33 36 40 43 47 49 52 55 57 58 59 62 64 64 65 67 71 74 78 83 89 93
10 12 12 13 10 8 20 14 16 17 16 16 12 11 11 11 11 11 12 14 17 20 23 26 29 32 34 37 40 43 46 49 51 53 55 57 58 60 63 64 65 67 70 74 79 84 88 91 92
16 16 18 17 17 18 14 12 13 11 9 9 9 10 9 11 12 15 17 20 22 25 28 31 34 35 38 41 44 46 49 51 53 55 56 58 60 62 65 66 67 70 74 79 84 88 90 91 94
20 19 17 18 18 12 5 11 13 12 13 14 13 13 15 17 19 22 24 27 29 32 34 37 40 41 43 46 48 49 51 54 56 57 58 60 62 64 67 67 70 74 78 83 86 88 92 94 91
20 20 19 20 17 14 14 8 13 14 15 15 17 18 19 21 24 27 30 32 36 39 41 43 45 46 48 50 52 53 55 57 58 59 61 62 64 66 67 70 74 78 82 85 88 89 91 91 89
23 21 20 20 18 17 18 16 15 18 19 20 20 22 24 26 28 31 34 36 39 42 45 46 47 50 53 55 56 58 58 59 60 61 61 64 65 67 70 73 77 80 83 86 87 88 91 88 77

GFSSGP_500_spd_048.txt.gz
Wind_Speed
23 25 28 30 29 29 26 22 12 30 42 33 31 35 36 38 38 37 39 45 43 29 35 39 36 38 35 35 35 22 20 17 12 11 16 14 10 7 4 2 5 7 9 10 12 13 14 14 13
21 22 26 28 27 28 16 16 29 32 22 30 38 43 34 38 38 38 43 46 44 47 44 39 40 39 38 39 23 16 17 15 12 14 17 13 10 6 3 6 8 10 12 14 15 15 15 15 13
19 20 21 23 27 26 14 29 24 26 29 33 44 36 35 37 38 40 40 47 48 50 45 42 45 41 43 34 17 17 15 13 13 16 16 12 7 6 7 9 10 13 15 16 17 17 17 16 14
15 15 18 22 23 15 14 28 31 32 41 41 38 40 38 40 38 43 46 48 53 51 49 49 41 38 31 16 16 13 13 12 15 17 15 11 8 8 9 12 13 15 17 17 20 22 20 18 15
15 15 15 15 15 15 13 26 35 34 40 40 40 42 38 36 33 33 35 31 33 38 43 38 44 37 17 14 12 13 10 13 16 15 11 9 10 11 13 15 16 19 20 21 22 22 19 18 17
14 15 13 6 5 9 25 37 43 37 45 35 30 31 34 34 32 31 32 41 38 29 40 44 36 26 10 8 9 9 10 12 13 12 10 12 13 14 17 18 20 23 24 25 24 21 21 19 18
13 17 9 5 11 13 35 43 45 30 37 34 35 27 27 27 26 23 30 27 25 38 42 29 24 18 13 5 7 8 11 11 11 12 12 14 15 17 19 20 23 25 27 27 27 26 23 21 22
11 15 14 14 13 27 31 34 37 33 15 28 14 13 25 23 21 21 12 21 32 25 29 23 20 15 12 9 8 9 11 10 12 13 14 14 18 19 21 23 26 29 28 31 31 28 25 26 27
14 11 6 7 24 31 41 29 11 20 24 27 31 26 10 16 21 15 22 15 23 24 17 5 5 7 2 5 7 11 12 10 10 13 15 17 19 21 25 26 27 30 31 31 31 30 30 28 30
15 7 4 28 30 34 37 43 14 13 16 23 22 25 19 21 18 20 7 17 22 24 10 7 4 3 5 7 9 9 7 10 13 15 16 19 24 25 27 27 27 29 27 24 24 24 30 32 37
14 12 11 23 23 25 23 12 8 18 10 18 16 14 23 22 15 22 27 16 11 2 0 2 5 5 7 7 9 9 10 12 14 16 20 25 28 28 27 29 30 24 29 33 30 34 31 34 37
13 14 15 21 21 17 12 7 8 14 19 4 8 10 12 14 11 14 13 7 4 6 6 7 6 6 7 8 9 11 12 15 17 21 24 26 27 30 33 31 27 23 40 39 40 42 43 38 40
14 21 26 18 20 15 16 17 18 10 2 6 12 9 9 12 5 22 9 7 7 4 3 3 5 7 9 9 11 13 17 20 20 23 25 26 31 31 27 19 26 31 34 38 36 37 39 42 45
14 24 25 29 25 16 13 17 14 14 4 5 7 8 7 7 8 3 5 4 4 4 5 6 7 7 7 11 15 17 19 23 25 32 35 35 21 25 30 25 38 36 31 35 39 39 44 44 45
24 21 19 23 21 16 11 10 13 9 7 6 6 4 4 6 6 4 3 4 5 6 7 6 7 9 11 15 17 19 20 28 28 32 30 31 30 38 29 26 30 33 40 45 44 42 43 43 42
24 18 11 19 21 18 14 11 8 3 4 5 5 4 3 2 1 0 2 3 5 5 7 9 11 12 15 18 19 24 24 25 32 33 39 28 34 37 37 34 37 45 47 47 43 42 43 42 40
14 7 16 13 19 3 8 11 6 4 5 4 3 2 2 2 1 2 3 5 6 7 9 11 13 17 16 19 24 28 29 31 35 38 36 36 34 39 41 43 48 47 45 44 40 40 40 39 41
5 3 4 4 4 8 3 7 9 7 6 4 4 5 4 4 4 4 5 6 6 10 14 16 17 21 22 25 27 31 32 33 33 33 37 36 36 38 40 41 41 42 44 43 41 40 42 44 46
3 5 3 6 4 5 9 14 7 8 6 5 5 5 5 7 7 7 9 12 12 14 16 19 21 23 25 28 28 29 29 30 32 33 33 34 36 38 40 43 45 45 47 48 47 48 49 49 51
3 9 7 10 8 5 9 12 3 4 5 8 8 8 9 9 9 10 12 15 17 15 16 20 23 26 26 27 25 25 25 27 30 33 36 39 42 43 45 47 49 50 50 52 53 53 53 54 54
3 12 24 22 12 6 11 12 10 5 7 7 12 14 13 15 12 14 16 18 20 22 21 23 24 24 23 21 21 24 27 30 32 35 39 42 45 46 47 48 49 51 53 54 55 55 55 54 56
13 16 3 11 4 7 15 19 29 22 6 7 14 20 22 20 20 19 23 21 24 25 25 25 22 21 20 21 24 28 31 34 37 39 40 43 46 48 50 52 53 54 56 57 58 57 57 60 62
14 15 8 7 11 20 18 19 9 20 17 14 13 20 26 28 28 25 28 25 26 24 23 18 18 19 22 25 28 33 35 38 41 45 47 50 51 51 52 52 53 55 57 58 59 59 60 64 68
14 8 2 3 7 14 14 6 17 19 16 19 7 15 24 30 30 30 29 22 19 19 16 17 19 20 24 28 32 35 38 41 44 46 49 51 53 56 58 60 60 61 62 63 63 64 67 70 74
15 11 8 18 12 6 6 12 13 21 17 30 24 18 23 23 22 21 18 15 12 14 17 21 24 26 29 33 37 39 42 45 48 50 52 54 56 58 60 61 62 63 64 65 65 67 72 77 82
13 8 16 9 6 9 13 6 15 20 17 20 22 17 14 14 13 11 11 12 16 19 23 26 30 33 34 39 41 44 47 50 52 53 54 55 57 59 61 61 62 64 65 65 68 72 78 83 86
3 10 16 13 13 11 12 13 15 15 16 14 11 13 13 12 13 15 18 21 23 26 29 33 38 39 41 44 47 49 52 54 57 59 59 58 60 61 62 63 64 66 66 69 73 78 83 85 86
13 14 11 14 15 12 2 2 23 15 14 15 16 15 15 16 19 22 24 26 29 30 34 36 42 45 44 46 49 52 54 56 57 60 58 60 62 62 62 63 64 65 68 72 77 82 82 85 87
14 16 17 16 15 13 11 9 18 20 17 16 18 18 19 22 24 26 29 30 32 36 39 39 44 48 50 50 51 54 56 56 56 56 56 61 62 62 63 63 64 67 71 76 81 83 87 85 86
16 17 19 19 17 22 18 22 18 18 20 20 22 23 25 26 27 29 33 36 37 39 45 47 48 51 53 53 53 56 57 57 57 52 62 64 62 63 63 64 67 70 75 78 81 87 85 86 89

GFSSGP_500_spd_051.txt.gz
Wind_Speed
24 26 27 29 28 29 30 24 22 24 24 27 23 31 35 40 42 37 36 33 37 39 33 27 32 33 35 35 37 36 33 33 24 19 14 20 18 16 12 9 5 6 6 7 10 11 12 12 13
22 22 23 26 26 29 25 23 20 18 25 24 26 28 30 20 32 36 38 35 40 39 42 39 34 39 37 35 35 33 33 25 23 16 17 22 20 16 11 7 7 8 9 9 10 10 12 14 15
19 20 20 23 24 27 15 19 24 22 26 34 28 26 28 24 29 34 39 37 40 43 41 43 48 47 43 39 37 37 37 22 18 16 20 24 19 12 8 9 9 10 11 12 13 14 16 16 15
15 16 19 21 20 8 16 18 12 20 28 25 31 31 34 34 38 40 41 40 40 48 50 47 48 50 44 44 40 39 20 19 15 17 21 19 13 10 11 11 12 13 13 16 18 19 18 17 15
14 14 15 16 7 8 12 14 18 26 25 28 31 39 41 37 35 33 32 34 53 44 42 35 40 52 42 40 37 26 16 14 14 16 17 14 13 13 12 13 15 15 16 18 19 20 21 19 18
14 16 17 8 21 5 8 17 23 27 31 31 31 37 38 40 31 29 31 28 27 36 25 30 38 43 45 40 29 19 13 12 13 15 15 14 13 13 15 17 18 17 20 22 23 23 23 22 20
15 17 10 23 13 16 19 29 27 29 34 36 36 41 34 28 29 27 26 31 37 36 32 34 38 42 35 24 16 9 10 12 14 14 12 11 13 16 18 20 19 23 23 24 25 25 24 23 23
16 17 13 18 8 16 21 25 29 34 40 37 29 17 20 21 21 24 25 27 32 30 30 25 38 33 19 14 17 15 13 10 8 9 9 13 17 21 19 21 22 25 24 24 25 23 22 24 21
17 9 10 18 19 22 29 28 26 37 17 28 32 24 27 11 9 19 16 16 18 27 21 20 15 11 8 7 8 11 11 7 8 9 14 18 18 18 20 24 26 25 24 18 16 24 22 25 25
16 10 14 21 18 24 27 29 31 31 32 19 16 18 24 20 10 13 17 18 27 33 23 7 9 11 10 9 9 9 9 11 13 15 15 17 18 20 24 24 24 25 26 24 19 28 33 33 37
18 14 15 15 16 16 22 24 26 27 22 19 12 15 18 11 13 11 17 21 34 11 15 19 18 14 10 10 8 8 9 10 10 11 15 20 21 24 24 26 23 18 17 22 28 33 31 29 32
16 17 11 27 18 17 16 23 23 15 24 13 9 8 15 11 10 18 23 31 4 3 14 14 12 10 9 7 5 4 6 8 11 14 15 18 24 30 24 16 18 15 26 27 34 34 32 33 36
16 15 13 23 20 20 15 18 20 14 19 15 6 10 9 8 9 12 10 15 12 14 13 12 11 8 4 3 1 4 7 9 12 12 16 15 17 18 21 23 26 24 24 23 31 36 39 40 39
14 20 23 26 23 23 20 13 20 1 18 12 8 3 3 4 4 7 4 7 11 9 7 5 4 4 3 2 5 7 9 10 13 16 20 20 23 28 29 30 28 28 27 31 38 38 36 37 38
17 21 21 22 27 24 13 13 8 7 14 8 6 4 4 5 2 3 3 3 3 5 3 2 1 2 4 6 9 8 12 16 18 21 25 27 28 28 28 29 30 29 33 34 35 37 37 38 38
18 15 17 19 23 12 8 13 13 9 10 2 4 3 4 5 6 6 6 3 3 2 0 1 4 5 6 9 10 13 18 20 23 25 26 27 27 28 31 31 28 31 31 33 36 37 38 39 39
15 6 3 7 11 13 13 12 10 9 5 2 3 4 3 3 1 1 3 4 1 2 2 3 7 7 9 11 16 21 24 26 27 24 24 25 25 26 28 29 30 31 34 36 38 40 41 42 42
16 9 11 8 14 10 11 7 6 3 0 2 1 3 3 2 2 2 3 5 2 4 6 10 13 15 17 18 19 20 22 22 21 22 22 24 25 26 29 32 34 36 38 41 42 45 47 47 47
8 15 10 10 6 6 6 7 6 2 3 1 3 1 1 3 2 3 5 2 4 9 11 12 16 17 20 18 18 20 19 19 21 25 26 29 31 33 36 38 39 40 42 45 48 48 49 50 49
7 3 12 10 8 3 5 6 2 7 6 3 2 4 6 9 9 10 12 10 8 9 16 16 20 22 18 17 14 15 17 21 24 27 29 33 36 38 41 43 44 45 48 50 51 51 51 53 53
2 2 10 14 11 8 13 16 18 3 9 7 4 4 5 7 9 14 16 19 17 17 19 18 20 19 14 14 15 19 21 24 27 30 32 36 39 42 45 47 47 49 50 52 53 53 54 55 55
9 1 12 18 8 8 14 14 18 17 13 11 13 11 8 11 11 14 18 23 23 23 19 20 15 12 13 16 19 23 25 28 31 35 37 41 44 46 48 49 49 50 52 54 54 54 55 57 55
8 6 3 9 8 11 12 16 20 29 21 16 14 11 14 14 13 13 16 21 24 23 17 12 13 14 18 20 24 28 31 34 37 40 43 45 49 51 52 53 51 51 52 53 54 54 57 56 57
6 3 13 11 13 18 7 17 10 18 12 20 3 18 19 19 19 16 13 13 15 19 17 15 17 19 24 27 30 34 37 42 45 48 50 53 55 56 57 58 58 58 59 61 62 62 61 60 63
10 10 18 15 12 10 11 17 10 15 15 10 10 12 17 18 17 16 12 8 8 13 15 18 21 23 28 33 35 39 43 46 49 52 54 55 56 57 58 60 59 62 62 63 64 64 63 64 68
14 13 20 17 6 15 9 11 12 11 14 12 12 9 8 10 12 11 10 9 12 16 21 25 27 28 31 36 39 42 46 49 52 55 55 57 57 58 59 59 59 63 65 65 65 64 64 67 72
14 18 14 8 9 11 8 14 14 12 15 13 10 11 12 13 13 14 15 16 19 21 25 29 32 33 36 38 40 44 47 49 52 52 54 56 56 57 50 57 67 68 70 68 65 64 68 73 77
7 13 8 11 12 9 10 13 13 11 15 14 13 14 15 16 17 19 20 22 24 26 29 33 36 39 42 43 43 47 49 51 52 53 55 56 58 57 54 57 64 67 69 68 66 70 75 80 83
11 13 14 16 16 13 11 15 15 13 16 19 19 16 17 19 21 24 26 27 28 30 31 35 40 44 47 48 47 49 49 50 53 56 58 60 54 60 58 59 64 67 67 68 71 76 80 86 89
12 14 17 18 15 20 15 15 22 16 20 22 22 23 20 22 24 27 30 33 34 36 39 40 41 44 44 45 45 47 48 51 56 59 60 60 61 62 59 61 70 67 68 73 77 82 85 89 90

GFSSGP_500_spd_057.txt.gz
Wind_Speed
22 26 25 25 25 29 34 32 33 31 30 25 27 31 25 26 31 35 32 26 26 27 26 29 33 34 36 35 34 39 26 30 35 34 31 27 21 16 16 14 13 11 13 14 15 16 15 16 17
22 25 22 21 21 20 18 21 27 28 31 26 24 23 20 26 33 35 32 28 32 32 30 33 36 37 37 33 32 28 37 30 32 34 28 25 18 16 17 15 13 13 14 15 16 17 17 17 17
21 25 18 13 6 10 13 20 23 27 25 28 25 23 27 26 17 21 31 36 31 32 31 34 39 41 36 35 34 30 31 34 34 33 26 24 16 15 16 14 16 16 15 16 17 17 17 17 19
20 22 13 7 8 11 16 20 24 26 30 29 26 31 29 25 22 21 25 26 27 32 37 40 41 40 34 37 34 32 37 37 34 31 28 21 15 15 16 16 17 17 17 17 18 20 19 20 20
18 13 11 8 14 14 16 20 25 24 27 32 28 23 27 26 24 26 25 31 33 35 36 41 34 35 34 45 33 39 43 39 33 30 25 8 11 14 17 19 17 18 18 19 20 22 25 26 25
15 12 7 12 18 20 22 23 23 27 27 23 26 24 22 23 21 26 28 30 30 32 34 35 24 40 34 48 40 41 49 38 29 15 6 9 13 17 19 16 18 18 19 18 22 24 25 25 22
15 13 14 14 19 25 25 27 26 23 24 26 23 22 24 25 25 27 26 29 23 30 29 32 42 43 41 32 47 48 43 30 10 10 14 12 14 15 19 18 16 15 19 23 24 25 24 23 24
16 14 14 15 21 24 25 20 22 21 23 26 27 14 34 27 26 26 30 32 30 30 34 34 27 24 31 34 42 45 34 17 13 10 11 13 13 18 16 12 17 22 22 25 25 24 21 22 21
20 15 14 18 22 23 19 10 18 20 24 21 22 30 28 32 30 29 28 24 23 30 31 26 29 34 42 40 36 35 24 18 14 14 14 12 13 10 10 18 22 22 26 26 23 20 19 19 20
16 15 16 22 24 24 25 18 17 20 21 23 22 20 23 26 25 25 21 24 21 28 17 28 22 28 25 26 36 25 24 21 17 16 12 11 12 14 19 20 25 22 19 15 18 20 20 26 26
20 17 22 20 21 22 26 20 21 25 27 29 25 26 25 26 25 21 21 18 20 21 24 27 25 23 21 19 22 23 19 13 12 11 10 11 16 18 19 18 14 14 19 21 20 27 30 30 29
25 21 24 19 16 21 20 19 19 22 24 28 25 21 25 20 20 16 19 20 17 24 23 22 21 24 15 22 18 16 14 13 10 11 13 15 13 13 15 19 20 21 22 25 26 27 29 28 26
14 23 26 22 20 18 17 16 19 17 16 12 13 16 17 18 18 18 18 19 19 26 28 24 19 19 19 17 15 11 9 7 7 7 11 13 16 17 20 21 22 23 24 23 22 24 28 30 31
15 25 22 22 21 20 13 14 19 17 8 7 8 11 6 13 15 16 17 13 20 18 15 19 16 17 15 14 12 11 10 9 8 8 12 11 14 20 24 22 20 20 19 23 26 27 31 33 35
16 24 25 20 22 23 18 13 16 6 2 6 11 7 12 17 20 16 15 9 14 12 12 13 16 15 12 14 10 6 5 4 9 12 14 16 20 20 18 17 19 20 23 27 29 30 33 35 37
14 15 21 17 20 19 15 9 7 8 4 9 16 10 12 13 17 13 13 13 13 13 7 8 11 10 9 9 6 7 3 9 12 13 15 17 13 14 15 18 21 24 27 29 32 34 36 38 40
14 11 17 17 16 20 12 12 12 13 17 14 11 9 11 10 12 12 13 11 12 13 12 12 10 7 7 4 4 5 9 13 14 15 14 12 15 16 19 21 25 28 30 34 37 40 41 43 44
13 10 14 14 16 20 14 15 12 13 12 11 8 8 7 7 11 12 11 12 13 11 8 8 3 2 1 4 7 10 13 14 14 11 13 17 18 20 23 26 29 33 36 39 42 44 45 46 47
14 6 14 15 12 10 13 10 11 13 14 11 11 10 9 8 7 6 5 5 5 5 5 2 1 4 6 8 10 12 12 11 11 14 18 20 23 26 29 32 35 38 40 43 45 47 48 48 49
11 6 13 10 15 15 13 8 12 11 8 9 9 12 11 8 8 8 6 4 3 3 3 3 5 6 9 8 10 10 10 11 15 17 21 25 28 32 34 37 40 42 44 47 49 50 51 52 55
13 9 8 7 7 10 11 13 9 8 8 8 6 9 9 7 5 4 5 4 4 5 6 6 7 9 9 8 8 9 12 15 19 22 27 30 34 37 39 42 44 46 48 50 52 54 54 54 55
6 10 13 11 6 4 4 7 6 8 9 9 4 1 2 4 7 5 5 7 7 7 11 12 11 9 8 8 11 14 17 20 25 28 32 35 38 41 44 47 48 50 50 49 51 54 56 59 58
6 8 10 11 9 5 5 6 6 5 10 13 12 6 8 8 9 7 8 10 8 8 11 10 10 9 10 13 15 17 23 26 30 33 36 38 43 45 47 48 49 51 49 46 53 54 58 63 61
7 7 8 10 10 10 11 10 6 9 8 7 7 9 10 6 10 9 8 11 12 10 9 8 9 10 13 16 19 23 27 31 35 38 40 44 46 48 48 45 47 51 47 50 57 62 64 65 63
15 11 12 12 13 12 15 15 10 12 8 9 8 10 8 6 8 7 7 8 8 8 9 10 11 15 17 20 24 27 31 36 40 42 45 47 46 48 45 45 51 46 55 60 66 70 65 67 68
19 16 15 17 14 14 15 16 11 10 12 13 12 12 8 7 6 6 6 6 7 10 12 14 16 18 21 24 28 31 36 41 44 45 47 48 48 47 50 44 56 59 60 65 69 75 69 76 76
18 17 18 19 19 19 19 20 13 15 16 15 13 10 8 7 8 8 8 9 11 13 15 18 21 23 26 30 34 38 42 45 46 47 49 47 53 55 51 49 64 56 65 68 70 70 76 79 76
16 20 17 17 14 15 18 19 16 18 17 16 17 13 12 9 10 10 10 12 14 16 19 22 25 29 32 37 41 44 47 45 45 50 48 47 46 51 53 62 58 59 71 66 76 74 75 76 77
17 18 22 21 21 16 19 19 19 18 19 19 20 19 16 15 13 12 13 16 18 19 23 27 31 35 39 43 44 39 40 46 49 53 47 51 54 49 63 59 59 62 66 71 74 74 75 78 81
21 25 25 24 20 21 23 19 18 19 21 23 22 23 21 20 20 19 20 22 23 24 28 32 36 40 43 39 39 40 45 46 47 46 51 61 56 60 59 61 62 64 68 70 73 75 78 82 84

GFSSGP_500_spd_060.txt.gz
Wind_Speed
22 23 21 22 24 25 24 28 33 37 36 38 39 29 32 30 27 30 29 30 30 30 30 25 25 25 29 32 32 30 28 23 28 29 27 25 23 18 10 10 9 9 9 11 13 15 15 15 14
21 21 20 20 22 16 16 22 28 34 28 26 25 25 26 38 33 27 30 31 30 28 26 25 27 30 30 32 33 34 32 25 26 31 31 27 23 17 10 10 9 10 12 13 15 16 17 16 16
19 18 18 19 14 12 14 19 27 32 25 25 25 25 20 23 14 17 22 31 32 29 30 30 34 32 32 33 33 35 32 29 25 32 31 29 24 12 11 10 12 10 15 15 17 17 19 19 20
16 15 16 14 10 13 15 18 24 27 28 26 27 30 27 29 19 23 23 20 19 25 27 30 32 36 37 36 37 35 35 32 26 35 34 31 23 11 14 12 11 15 16 17 18 19 19 21 23
12 12 13 12 15 14 19 19 20 23 26 30 30 27 26 24 24 23 23 23 24 28 31 30 29 33 32 35 42 34 35 34 34 38 35 33 22 17 13 13 15 16 17 18 18 18 22 24 25
9 10 8 12 18 20 22 23 23 21 21 25 29 27 25 23 19 23 25 29 27 27 29 28 26 28 29 37 47 35 44 44 39 39 32 19 10 8 12 16 15 16 17 17 17 21 25 27 25
10 10 12 16 20 21 21 19 22 21 17 21 23 23 26 26 25 23 27 29 28 27 20 27 31 27 25 33 46 51 36 46 40 30 20 11 9 13 15 14 12 13 16 18 22 26 26 28 27
13 11 13 14 19 17 17 18 14 20 20 21 28 25 21 30 26 27 28 25 30 29 27 29 35 28 16 37 32 39 38 39 38 22 14 15 11 13 12 9 10 15 17 22 27 29 31 31 26
15 10 13 16 19 18 17 17 2 10 21 22 26 23 22 27 27 32 32 31 28 32 31 32 34 35 29 32 45 39 42 36 27 18 13 11 10 10 9 13 14 15 20 27 29 31 27 22 21
17 14 18 18 18 19 18 16 16 15 17 21 24 25 26 22 28 28 32 31 30 27 25 27 38 29 35 29 38 35 32 21 15 14 12 10 11 12 10 12 16 20 26 29 23 22 24 23 27
19 19 19 15 12 15 19 20 21 19 22 23 28 28 26 25 26 25 27 30 22 26 29 19 26 33 38 33 30 31 30 22 18 16 15 10 12 12 14 18 22 21 18 21 23 24 26 26 24
14 22 16 16 12 12 16 19 20 22 24 25 28 28 27 28 20 21 20 18 23 22 24 15 28 19 26 32 28 18 20 18 16 13 8 12 16 19 17 14 15 23 22 24 22 21 20 23 26
11 16 23 19 18 14 13 17 19 22 23 23 15 14 23 23 20 18 16 13 18 17 19 26 15 21 22 19 22 18 16 15 11 11 12 14 16 17 18 18 20 22 21 19 19 21 25 28 30
13 12 19 20 18 19 17 19 19 19 19 13 10 8 6 10 14 16 16 17 17 24 23 18 18 18 18 13 15 12 13 14 12 10 11 9 12 14 16 20 17 16 17 20 23 27 28 30 32
12 11 13 20 19 20 19 22 21 17 12 4 10 16 14 14 18 23 19 17 17 21 23 18 17 14 14 13 13 11 7 7 9 11 11 11 14 15 15 12 14 17 21 23 26 29 32 35 37
15 12 10 15 18 20 19 19 17 8 5 12 12 13 16 11 13 16 16 16 15 14 13 13 16 16 12 12 13 13 13 11 9 10 11 12 11 9 12 14 17 21 24 26 30 35 38 40 42
9 9 10 12 10 8 14 12 12 16 16 13 12 12 14 13 14 16 15 15 15 14 15 15 16 15 15 14 10 10 10 10 10 13 11 10 10 12 15 17 21 24 28 33 37 40 41 44 45
8 11 7 8 19 20 22 21 14 15 9 7 7 11 11 10 13 12 12 13 12 12 11 12 11 11 11 10 9 8 10 10 11 11 9 11 14 17 19 21 26 30 34 38 41 43 45 45 46
9 6 3 16 8 13 18 22 20 17 12 9 7 9 10 10 10 10 11 11 12 10 10 10 9 10 11 10 9 9 10 10 9 10 14 15 17 21 24 26 31 35 39 43 45 46 47 48 48
4 4 8 13 12 14 12 16 17 17 13 10 8 7 9 8 7 9 11 12 11 11 10 9 8 8 9 9 10 9 9 9 11 14 18 18 22 26 29 32 35 39 44 46 46 48 51 51 48
9 5 12 11 14 12 10 7 9 10 10 10 9 8 6 8 9 10 10 10 10 10 10 10 10 11 11 10 11 9 8 11 15 18 21 24 27 30 34 36 39 43 46 48 48 49 54 52 50
12 8 10 10 7 10 10 10 8 10 7 8 8 9 5 6 8 8 10 11 11 11 12 13 13 14 13 12 12 11 13 15 17 22 25 29 31 35 38 40 42 44 46 49 49 52 48 49 55
4 6 9 10 12 11 8 9 12 7 4 10 14 8 13 14 15 13 11 11 12 12 14 15 14 14 13 13 14 14 17 19 22 26 30 33 36 40 42 43 45 46 48 46 48 52 50 59 63
7 4 7 11 13 12 11 6 5 7 7 10 13 15 19 16 18 18 15 16 18 16 16 16 13 13 12 12 14 19 20 22 26 31 35 38 42 45 45 48 48 46 49 43 40 55 65 61 62
17 10 10 13 14 15 15 12 4 12 10 9 7 8 11 16 18 22 20 20 19 16 16 15 13 15 14 15 18 20 24 26 31 37 41 43 45 44 48 47 52 49 50 49 53 64 64 62 66
19 14 14 16 16 17 18 18 11 13 14 14 12 11 13 15 17 20 18 16 16 15 13 14 17 21 15 16 21 24 29 32 38 42 46 45 44 46 51 49 51 50 54 56 60 67 64 69 72
18 19 18 20 18 18 17 18 16 14 15 15 15 17 17 14 17 15 13 14 15 15 15 17 19 20 17 21 26 29 33 37 42 44 42 44 48 51 56 53 52 58 53 61 69 67 67 69 71
19 20 22 22 22 18 11 13 12 12 17 19 17 16 17 18 17 15 13 13 15 16 16 19 21 21 23 27 32 35 39 42 40 37 41 46 52 56 56 58 58 62 61 66 66 67 68 72 73
26 24 24 22 22 23 18 10 12 17 18 20 20 20 19 20 20 17 16 18 17 17 20 24 26 26 29 33 37 39 40 39 43 41 43 51 47 56 59 47 61 70 70 67 68 67 68 72 74
31 30 30 28 25 23 23 14 15 17 18 20 22 22 20 21 23 22 22 22 22 24 27 30 32 31 35 38 40 38 40 41 44 50 49 46 53 54 47 67 69 67 69 69 68 69 72 76 78

GFSSGP_500_spd_063.txt.gz
Wind_Speed
24 23 20 16 15 15 18 25 34 38 42 27 29 31 30 30 30 29 33 34 34 33 30 28 28 30 30 27 28 27 28 27 23 23 22 21 18 16 16 8 8 9 10 9 10 10 12 14 13
25 22 17 13 12 12 14 18 29 36 38 38 33 34 33 29 30 29 33 33 33 34 32 29 28 26 27 25 25 26 28 29 28 24 25 21 20 20 17 12 12 12 11 10 11 11 12 14 14
23 19 13 9 6 9 12 17 23 31 34 33 25 23 32 33 31 30 36 36 30 31 31 29 29 28 30 30 28 28 30 31 30 25 26 23 24 24 16 15 14 13 13 13 12 11 14 16 15
19 15 9 5 8 11 13 17 22 22 27 27 24 22 20 22 25 24 30 9 13 20 27 31 32 33 32 31 30 34 35 33 28 29 25 28 29 27 17 16 16 16 14 14 13 12 15 17 19
14 9 7 6 12 12 15 19 22 20 20 23 25 22 21 20 22 16 11 12 17 17 20 23 28 29 27 27 28 31 34 32 29 29 35 30 33 31 20 15 20 18 16 15 10 14 15 18 21
10 4 6 9 14 14 15 18 19 13 14 20 24 22 17 17 15 11 12 19 22 20 24 23 25 28 27 24 27 33 30 30 33 34 34 33 36 25 16 20 19 17 16 13 13 14 18 22 24
7 3 7 10 15 19 20 16 15 11 9 15 18 20 21 25 21 18 18 22 24 22 25 23 25 26 25 28 26 30 30 33 38 38 42 35 23 19 19 12 17 16 11 12 13 16 20 23 23
6 6 9 11 15 17 15 16 11 12 12 14 16 16 20 24 26 25 23 25 27 26 20 28 43 27 43 32 25 29 45 39 40 40 35 28 17 20 14 16 16 10 10 13 18 23 24 25 29
7 8 12 11 12 13 13 12 8 2 5 14 13 17 24 25 25 21 28 27 29 29 27 28 31 33 30 45 30 38 41 31 40 41 38 21 19 10 13 12 8 10 12 16 21 25 27 22 22
9 10 15 12 8 12 12 12 11 16 11 11 16 19 19 25 25 23 27 30 31 35 30 29 38 31 35 43 33 25 31 37 37 31 26 20 16 12 9 10 10 14 19 20 22 24 21 22 22
9 13 14 13 10 6 7 10 14 17 18 20 20 20 22 25 27 24 26 26 26 28 27 27 34 37 39 39 38 34 35 35 32 24 20 17 16 9 7 10 15 19 21 23 21 22 18 15 15
8 13 16 12 12 8 6 7 12 16 20 22 27 24 23 26 29 31 30 23 27 32 23 28 36 21 28 28 36 32 32 31 29 23 18 14 12 14 14 17 17 19 18 24 21 14 14 18 22
10 8 12 22 15 14 11 10 13 17 18 22 23 21 16 18 23 24 21 21 17 20 27 18 25 20 20 17 23 26 18 18 20 17 14 12 12 13 18 17 19 20 20 15 13 16 18 21 24
9 7 9 13 21 17 15 14 14 18 19 20 21 17 12 13 19 12 19 17 16 16 20 20 19 23 28 29 17 22 21 18 14 11 11 12 11 14 14 15 17 14 13 15 17 20 21 23 27
9 9 11 12 15 22 15 14 14 15 21 18 9 6 7 9 8 12 20 19 22 22 19 16 19 19 20 17 15 12 11 11 12 13 13 11 11 11 12 13 10 12 16 19 21 23 26 28 32
9 9 11 12 13 12 13 15 13 16 10 6 8 15 13 11 15 17 22 17 19 14 18 19 18 16 14 13 12 11 11 12 12 9 8 10 10 12 12 12 14 17 18 23 25 28 32 34 37
6 4 7 9 13 14 6 12 10 14 14 9 8 8 8 9 11 11 16 17 13 15 13 15 16 16 14 12 11 13 13 12 11 11 12 14 12 12 13 14 18 20 22 28 29 33 36 39 41
2 7 8 5 6 11 15 13 18 18 12 11 10 8 9 6 10 12 13 13 12 11 9 8 11 12 13 13 12 11 12 12 13 13 14 13 12 15 15 18 21 24 28 32 33 36 39 41 43
3 2 2 13 16 15 15 16 13 14 14 12 12 9 9 9 10 12 13 14 15 13 13 14 13 14 15 15 14 14 14 12 12 14 13 13 14 15 19 22 26 28 32 35 37 39 41 46 48
6 4 6 12 7 11 14 9 6 9 10 10 10 11 10 9 10 11 12 13 14 15 15 15 15 15 13 14 15 15 13 13 13 14 13 14 16 19 23 27 29 31 36 39 40 42 44 48 48
9 3 7 8 10 13 11 9 9 6 4 6 6 5 8 9 10 12 13 13 14 15 15 14 13 13 14 15 15 16 16 14 15 15 15 17 20 23 27 30 32 36 38 41 41 46 47 48 48
5 3 7 5 6 10 8 10 10 10 6 4 5 7 6 7 8 9 11 13 13 13 14 15 16 16 15 17 17 17 17 15 16 18 19 22 23 26 30 34 37 40 41 44 43 46 47 50 46
8 7 11 11 14 8 7 8 13 11 7 9 8 9 9 12 13 14 14 16 15 16 16 17 17 16 17 16 19 18 16 18 21 23 24 26 28 32 35 40 43 43 42 43 47 46 50 52 51
11 7 4 6 9 10 10 7 12 11 10 8 14 16 18 20 19 19 19 18 16 18 17 18 16 14 16 16 17 19 20 22 25 23 25 29 33 37 41 42 42 42 45 48 50 53 53 57 54
21 15 10 7 8 9 11 10 7 11 13 11 10 16 21 25 24 23 23 23 22 20 19 20 17 16 18 21 22 24 25 26 22 25 28 32 33 41 40 41 43 45 50 54 56 57 58 59 62
26 25 18 13 13 12 15 16 10 13 14 11 15 14 12 12 20 22 25 26 24 23 21 18 18 17 20 26 27 23 22 21 27 29 34 33 41 40 42 44 46 51 52 56 59 56 57 70 67
27 27 23 19 18 15 13 16 14 12 15 13 11 11 12 13 19 23 24 23 22 19 17 16 18 18 22 27 27 23 26 29 32 33 33 38 38 42 46 47 51 45 55 65 63 58 69 69 69
28 27 24 23 21 19 15 13 7 12 9 11 15 15 15 15 16 17 19 20 20 20 20 19 20 21 23 27 28 29 30 32 34 34 32 36 41 44 46 50 44 49 52 62 62 68 71 72 72
28 27 26 24 24 24 19 15 14 13 13 12 15 18 19 20 19 20 21 22 21 21 21 21 24 26 28 31 32 33 36 37 37 33 32 37 44 49 50 49 52 58 64 68 68 71 70 71 72
29 28 29 31 29 29 30 24 18 14 15 17 18 18 20 20 21 22 24 24 24 24 25 28 28 31 32 34 35 37 38 37 35 36 42 45 49 56 47 48 47 63 63 61 69 71 71 72 75

GFSSGP_500_spd_066.txt.gz
Wind_Speed
34 28 25 22 19 14 10 15 21 27 32 27 43 36 41 42 35 32 30 35 37 37 31 34 31 29 27 26 26 29 29 30 26 20 18 19 16 15 15 12 13 11 12 12 12 10 9 10 10
29 26 22 19 12 8 7 19 17 25 29 34 33 37 44 32 34 38 34 35 36 37 36 35 34 31 28 28 30 31 30 26 25 22 21 23 18 18 19 15 14 16 15 14 13 11 8 10 10
24 21 17 13 4 6 10 20 17 21 24 28 30 29 30 24 25 33 29 32 37 39 35 37 37 34 30 29 28 27 26 25 23 23 24 24 19 20 21 19 17 18 17 15 14 12 10 10 11
22 18 13 7 8 10 15 17 17 18 21 25 28 26 23 25 29 28 30 32 32 37 43 43 37 35 33 30 28 27 24 27 26 25 24 24 21 20 26 24 19 19 19 17 16 13 11 11 11
18 13 6 5 11 12 11 13 15 14 14 22 23 22 22 22 23 17 27 32 38 41 47 41 37 35 34 29 27 25 26 28 26 21 24 22 27 28 27 28 24 24 21 18 16 13 12 11 13
15 7 2 5 11 12 8 10 10 10 12 18 21 22 23 22 20 15 16 25 26 29 20 20 21 23 25 28 28 27 27 28 25 18 19 24 31 31 31 31 24 21 24 19 14 14 11 12 15
12 3 7 11 13 14 9 8 9 10 10 10 15 20 21 25 12 14 19 17 16 16 12 13 14 22 26 26 27 29 28 30 26 23 23 28 33 37 30 27 22 24 22 14 13 11 13 17 18
12 6 7 11 11 15 18 16 16 13 14 15 11 13 20 18 22 22 23 22 20 21 19 14 16 26 27 35 41 29 30 33 30 33 31 33 31 29 31 26 22 16 15 10 11 13 18 19 22
11 7 8 9 7 11 11 7 3 12 13 16 12 10 14 19 19 20 20 26 25 23 20 22 24 33 32 20 32 34 28 35 39 40 33 31 35 32 27 26 21 13 12 11 13 18 20 18 19
8 7 10 12 9 4 6 7 7 12 11 8 7 12 15 14 19 23 21 20 25 25 26 27 26 30 31 33 38 36 41 40 54 33 34 34 31 24 24 15 14 11 11 15 18 17 17 19 19
6 7 14 13 9 3 1 3 7 8 11 16 18 16 16 19 21 22 24 23 24 24 26 29 30 23 27 36 32 37 42 29 35 36 32 30 27 25 18 15 13 15 15 15 17 19 20 12 11
8 7 11 16 13 6 2 4 9 8 11 14 16 21 20 21 22 27 27 28 27 29 30 27 27 29 32 33 37 38 25 32 33 28 24 21 20 17 12 14 15 14 14 13 17 17 13 12 15
6 6 6 8 16 16 9 8 13 13 16 15 20 20 16 18 20 24 27 28 31 29 35 33 26 27 33 24 30 19 25 27 25 23 20 17 13 12 14 14 15 17 14 17 13 11 13 16 18
8 7 7 7 8 15 16 11 15 14 17 13 17 18 12 14 13 20 25 26 26 23 28 25 18 21 21 25 29 35 25 10 19 23 20 17 14 13 13 16 17 14 17 13 12 14 16 19 22
8 8 10 9 11 11 16 17 16 15 17 16 17 12 9 13 11 17 17 24 20 17 18 17 19 29 20 24 32 15 22 21 16 13 12 13 13 12 12 16 17 14 12 13 14 17 20 24 26
9 9 5 13 10 8 6 10 15 15 15 10 3 8 7 2 7 14 24 27 29 23 24 17 16 15 19 17 19 17 14 12 12 14 13 15 14 13 15 17 11 11 13 16 18 21 25 28 31
7 7 7 8 9 10 4 8 13 10 11 7 4 6 11 9 12 16 19 16 13 11 12 15 15 16 17 16 14 13 11 13 14 12 14 14 13 13 14 10 13 14 17 20 23 26 30 33 36
5 8 9 5 12 7 7 10 9 8 8 7 3 3 8 5 8 7 9 16 16 12 15 14 13 12 11 11 11 11 10 11 13 15 16 16 14 14 11 13 15 18 22 24 28 31 34 37 39
4 8 8 7 2 6 8 12 11 10 7 9 6 5 4 3 8 10 10 10 10 7 6 8 11 9 10 11 13 15 15 17 17 18 18 17 14 13 13 16 18 22 25 29 32 34 37 39 38
5 4 4 2 1 2 6 7 3 4 5 3 5 6 4 6 8 9 10 12 12 10 10 11 12 13 14 15 15 15 17 19 19 19 18 15 15 15 16 19 22 26 29 33 35 37 38 40 41
5 3 7 6 8 6 7 2 1 1 2 3 4 3 4 5 7 9 11 13 13 14 14 14 15 15 15 15 18 19 20 19 19 18 17 17 18 19 20 23 27 29 33 36 39 38 39 41 43
6 4 7 3 3 2 1 3 8 6 5 3 3 5 5 5 6 7 8 10 12 13 14 16 17 17 18 18 19 21 21 22 22 20 19 21 22 22 24 28 29 32 37 39 38 36 40 43 44
8 9 7 6 8 5 4 4 12 11 9 9 9 10 10 11 10 11 11 13 14 15 16 17 18 19 20 21 20 22 21 22 22 23 22 24 29 28 28 31 33 36 38 38 39 40 41 46 50
9 10 6 3 5 8 10 8 9 11 14 14 13 15 16 13 14 16 18 19 18 20 20 20 20 19 18 20 22 26 26 25 26 26 27 30 29 25 32 38 35 41 38 42 43 42 45 46 54
10 15 10 9 6 7 8 8 11 13 15 18 17 17 20 20 22 25 23 20 20 21 20 18 19 20 19 18 19 24 28 26 27 26 30 27 27 32 36 33 42 42 42 46 48 48 49 50 56
18 20 22 17 14 13 13 11 13 18 18 19 20 16 18 17 15 15 18 21 22 23 22 21 21 21 18 19 20 23 27 33 33 25 24 27 30 34 33 38 40 43 46 51 52 52 51 55 57
23 24 25 25 21 19 17 13 16 16 19 20 18 21 20 14 14 16 21 25 24 24 24 24 22 20 21 23 25 25 29 32 30 29 28 32 35 35 35 38 40 46 49 49 50 52 54 53 67
20 23 24 25 22 21 19 15 13 18 14 18 20 21 19 16 15 16 16 19 22 22 21 20 22 23 24 24 27 29 32 36 34 34 37 36 36 33 34 40 44 47 51 51 54 57 61 70 64
20 20 25 26 24 23 21 18 11 18 20 18 17 18 21 20 19 20 21 17 18 20 21 22 23 25 26 27 30 33 36 38 38 40 41 35 30 33 41 44 49 47 47 48 53 58 66 70 71
22 22 26 27 27 28 29 25 22 22 24 23 20 19 19 21 22 23 24 26 26 27 26 26 28 30 32 34 36 37 39 40 43 38 33 32 35 39 40 47 45 43 60 57 54 53 64 67 77

GFSSGP_500_spd_069.txt.gz
Wind_Speed
56 51 32 24 18 15 11 12 21 22 25 32 34 35 39 40 46 45 18 32 35 36 33 32 30 31 32 31 28 27 26 26 26 24 22 20 18 16 15 14 13 13 15 14 14 12 11 8 7
54 35 24 18 11 6 11 17 15 15 23 34 13 21 29 38 41 36 20 34 32 35 35 35 35 35 34 30 29 28 28 28 26 22 19 20 19 18 17 15 16 18 18 17 17 15 13 10 8
40 26 20 10 9 9 14 5 15 21 23 20 19 20 25 39 32 40 36 25 31 36 38 38 39 40 35 35 33 30 26 24 23 21 20 20 22 19 19 17 19 21 20 21 19 17 13 10 8
27 21 16 7 6 12 16 15 18 12 18 19 13 8 20 27 28 37 38 42 33 36 39 38 37 41 38 36 34 29 25 24 24 22 22 21 20 20 20 19 22 24 24 25 22 17 13 9 10
20 17 8 10 9 13 14 11 18 16 12 9 13 16 27 21 9 25 20 29 39 40 32 36 35 34 37 36 35 31 27 27 26 24 22 20 21 21 22 25 25 26 28 26 23 15 12 10 10
17 12 5 9 6 11 20 12 8 10 11 11 11 23 13 16 19 16 24 22 33 40 38 43 39 42 46 44 39 34 33 30 27 24 22 23 22 22 24 28 30 28 30 29 18 13 11 10 11
13 7 7 13 11 9 20 17 7 8 9 11 10 9 19 18 22 18 16 18 27 38 40 35 35 29 39 39 38 37 35 30 27 26 23 22 23 25 29 31 31 31 30 20 16 13 10 11 15
12 9 6 7 9 10 12 17 14 12 12 15 13 10 15 17 16 18 21 19 23 19 21 10 14 27 33 42 31 29 26 27 29 26 24 24 26 30 27 31 31 32 21 17 14 11 12 14 16
9 8 7 8 8 13 17 10 13 10 16 11 14 14 11 13 17 20 18 19 21 23 19 17 10 17 24 32 47 34 21 28 32 32 31 36 40 29 29 26 27 24 19 17 11 12 13 16 14
6 3 7 14 15 18 18 13 14 7 11 12 12 18 16 15 15 18 21 18 21 20 25 22 21 23 26 28 31 19 21 26 35 40 35 47 41 31 33 27 23 21 14 13 14 14 17 13 17
6 5 11 15 15 11 9 8 10 6 10 11 16 16 17 17 19 22 18 19 24 22 21 24 21 23 29 30 19 27 21 26 31 43 41 39 31 34 26 23 13 11 14 14 13 15 16 17 15
8 8 12 13 18 11 9 9 11 9 13 12 13 18 21 22 22 25 27 23 24 23 23 23 22 25 19 28 29 28 23 25 24 37 43 37 34 24 21 17 18 15 14 14 12 14 15 14 12
9 10 11 9 12 16 16 13 15 16 16 13 16 18 20 23 23 26 25 26 27 27 27 26 21 23 27 37 28 22 21 18 22 29 35 35 26 21 17 15 16 16 16 15 15 15 11 12 14
13 12 13 14 14 13 14 16 17 21 17 15 15 20 17 19 23 23 24 24 24 22 25 24 30 32 39 35 28 27 23 22 26 33 41 24 19 17 16 16 16 17 17 17 15 12 12 15 17
8 10 11 12 8 10 10 13 16 16 19 17 18 20 16 15 18 19 23 24 21 21 17 16 17 18 16 26 23 34 30 30 21 20 21 22 17 13 13 16 17 15 14 13 12 13 15 17 21
5 8 6 24 17 13 5 16 6 18 19 16 16 15 16 12 13 14 15 14 20 16 23 26 18 15 18 25 14 17 14 18 20 19 16 14 12 13 14 15 16 11 11 12 13 16 19 22 25
7 6 10 16 17 14 3 10 14 15 15 12 9 9 12 3 4 9 19 19 23 34 28 22 22 14 9 10 16 21 20 16 13 9 7 10 13 14 16 13 13 13 13 14 16 20 22 26 29
10 9 14 9 20 15 5 5 12 22 10 8 5 8 3 7 12 16 12 10 18 17 12 9 13 14 13 14 14 12 8 6 5 10 14 15 15 16 16 14 14 14 16 18 21 24 26 29 33
13 11 6 9 17 7 8 4 14 21 11 12 10 5 4 2 8 7 10 13 12 11 11 11 13 12 9 6 5 4 6 9 11 14 16 16 17 18 16 15 16 18 20 22 25 27 30 34 36
4 7 3 8 9 10 3 7 12 6 4 7 4 5 5 2 1 4 6 5 6 5 3 2 2 1 1 3 4 6 8 11 15 17 19 20 20 20 18 20 20 22 24 25 28 31 35 38 37
3 6 8 6 7 5 5 7 7 8 5 5 7 6 2 2 2 1 1 1 1 2 3 3 5 6 7 9 11 13 14 17 18 19 21 21 20 20 22 24 24 26 28 27 31 36 38 37 36
5 8 7 2 2 13 2 10 4 11 10 6 4 4 4 3 3 4 3 4 4 6 7 9 10 11 11 13 15 17 20 21 22 22 22 21 21 23 26 28 29 31 32 31 36 38 36 38 41
12 5 4 5 4 4 9 2 13 7 9 13 10 11 8 8 5 6 8 9 9 9 10 11 13 14 16 18 19 21 23 24 25 24 25 23 24 26 28 35 40 34 35 37 41 40 40 43 48
10 10 6 6 5 8 5 7 10 6 8 12 14 14 13 13 13 15 16 15 15 15 15 16 17 17 18 19 20 22 24 26 27 27 28 26 29 31 33 38 32 31 36 37 39 42 43 48 52
10 11 5 8 10 4 12 10 9 12 20 21 20 18 17 16 16 16 19 17 16 14 16 17 18 16 18 20 20 19 21 20 22 27 30 32 34 35 37 33 36 35 38 37 40 42 46 51 52
15 12 10 9 10 8 17 11 8 17 20 21 20 23 22 20 17 15 16 16 15 16 17 17 18 20 20 18 18 18 20 21 25 23 27 32 33 32 31 33 39 41 39 38 42 49 48 50 54
18 21 14 21 22 18 17 15 14 15 13 14 21 23 25 25 23 19 17 16 17 19 18 19 19 19 19 20 21 21 24 24 26 29 31 34 36 37 39 39 41 43 35 42 45 51 44 50 53
25 19 22 22 17 17 11 15 13 23 20 12 15 20 25 25 23 21 18 17 15 16 18 19 20 21 22 24 25 26 26 28 31 33 36 37 37 42 44 42 39 33 43 49 48 50 47 53 61
21 24 21 17 15 15 15 11 17 18 20 22 19 21 22 24 24 22 21 20 21 20 21 21 23 25 27 27 27 29 31 32 36 38 40 40 42 41 40 32 35 45 42 50 51 43 48 62 67
20 21 22 23 21 24 26 23 18 28 21 26 24 24 24 23 24 25 24 24 24 26 27 28 28 29 30 31 32 31 35 39 41 44 44 44 45 44 41 40 39 47 40 53 51 55 60 74 70

GFSSGP_500_spd_072.txt.gz
Wind_Speed
46 49 54 43 27 16 15 14 17 25 22 37 30 43 42 45 49 51 50 56 49 32 35 33 36 27 26 25 25 28 28 27 27 26 24 20 19 16 16 15 15 14 13 14 15 16 14 11 10
47 50 49 29 19 7 12 23 20 10 32 35 37 38 46 50 51 59 52 49 50 26 42 31 39 29 28 29 29 31 32 31 28 27 24 19 18 16 16 17 16 17 17 16 18 17 17 13 13
48 50 33 23 11 4 16 18 19 16 31 37 26 30 33 45 31 23 52 33 12 31 39 41 40 34 35 34 35 35 33 30 27 23 20 19 19 18 18 17 17 18 19 20 20 20 18 16 13
47 37 17 11 10 10 22 19 26 24 32 35 23 26 24 27 12 17 31 45 23 23 33 36 35 34 34 34 34 33 32 28 26 22 21 21 21 18 20 19 20 21 23 23 23 22 19 15 14
44 23 15 11 16 17 16 27 33 15 27 18 14 12 19 16 11 17 18 33 31 27 27 34 34 35 36 34 35 34 30 29 27 26 25 24 21 20 20 20 21 23 23 24 25 23 26 14 13
29 17 8 11 23 10 21 23 22 23 19 28 33 16 17 11 6 14 16 36 29 34 31 32 38 38 38 38 37 36 35 30 29 28 27 25 23 21 20 19 21 26 28 26 27 31 19 14 13
18 9 4 10 15 16 30 19 19 16 24 20 17 25 16 7 8 14 17 31 29 31 32 29 31 38 43 43 39 35 34 34 32 30 29 25 22 20 19 22 23 26 27 26 31 13 12 14 13
14 6 5 14 8 21 31 19 22 23 27 14 22 23 24 7 6 9 18 15 29 14 14 17 33 24 51 43 49 43 39 36 32 26 30 26 22 21 24 22 24 23 27 27 14 15 12 12 12
9 2 6 11 7 15 25 31 17 22 20 18 20 20 16 10 6 7 13 17 18 13 13 16 15 23 33 35 36 39 36 34 29 22 25 29 27 23 30 34 28 28 29 25 16 13 12 11 11
7 1 14 6 15 18 30 27 20 21 25 20 16 11 9 15 16 10 13 16 16 14 13 18 14 12 20 12 28 26 23 31 34 23 25 27 32 29 32 34 27 25 21 16 10 11 13 11 15
12 5 14 17 16 26 22 23 14 17 30 24 21 16 14 15 21 17 14 15 20 20 19 20 19 16 13 24 16 16 16 14 20 21 26 25 38 37 29 29 24 21 13 10 12 12 13 15 14
17 14 8 15 18 25 18 19 13 17 14 18 20 22 19 17 22 21 20 16 17 21 22 18 17 10 23 19 18 21 14 19 21 18 23 31 34 31 31 30 21 14 15 13 13 14 15 15 10
19 14 14 16 16 15 11 20 19 18 16 14 16 21 21 20 22 21 19 20 18 18 18 19 18 15 27 18 18 28 21 21 27 28 22 26 33 35 32 23 17 13 11 13 16 16 16 9 9
15 14 12 14 23 18 17 12 14 19 18 16 12 15 18 20 25 21 18 19 16 14 17 17 17 18 26 22 23 25 26 34 22 19 16 24 36 34 30 19 16 12 13 17 17 17 13 10 12
11 10 8 10 20 24 13 15 21 29 9 16 13 16 17 19 24 23 19 18 16 16 18 15 10 20 17 16 19 36 29 25 18 16 16 20 24 23 17 16 14 15 16 16 16 15 13 14 15
6 7 18 13 18 18 19 20 24 25 7 13 16 17 15 18 19 19 17 18 17 14 14 17 21 13 16 15 15 15 14 22 13 15 16 20 20 16 13 12 13 14 14 15 16 15 15 16 17
14 11 12 24 18 19 21 16 15 22 7 11 20 18 16 19 18 16 12 13 13 17 23 15 19 19 14 13 12 8 5 15 15 19 18 13 11 11 11 10 12 14 15 15 17 17 18 18 20
14 9 13 11 19 18 9 12 20 22 28 28 21 17 9 5 3 3 3 1 10 19 4 9 3 8 7 5 10 13 16 15 13 11 10 9 6 7 9 14 15 14 17 18 18 19 20 22 24
12 14 4 19 11 13 4 5 10 21 22 9 17 16 9 10 6 15 16 16 17 18 15 13 13 13 11 14 11 11 8 5 3 3 3 6 9 12 14 14 16 20 20 20 22 21 23 25 28
8 7 7 8 10 7 3 13 13 14 13 11 8 8 8 7 6 10 10 9 10 10 9 10 7 8 7 5 3 3 2 2 3 5 7 10 13 17 19 19 20 22 23 24 24 25 27 29 31
8 3 6 13 14 9 5 7 11 16 15 14 10 9 7 7 6 7 5 5 6 6 5 4 4 5 5 5 6 7 7 8 10 11 13 15 16 18 21 22 23 26 27 29 30 31 33 34 34
12 9 8 8 8 8 5 3 12 16 11 11 16 8 10 5 5 5 5 7 8 7 6 5 6 6 7 9 10 12 13 14 15 16 17 19 20 20 22 24 25 27 33 37 35 36 39 39 39
10 12 7 8 5 6 16 4 14 14 9 18 14 14 6 9 8 7 9 10 11 10 9 9 8 8 9 11 12 14 14 16 17 18 20 21 22 23 25 27 29 30 33 37 40 42 40 41 40
16 14 12 10 8 4 2 7 15 9 7 12 15 22 13 2 7 13 14 11 11 9 9 10 12 12 11 12 14 16 17 17 17 17 20 22 21 24 29 30 31 37 40 40 43 37 43 40 42
15 15 13 11 10 4 5 4 13 14 13 16 20 25 20 13 7 10 11 10 11 9 8 9 10 11 12 11 15 14 14 17 17 17 19 20 19 24 28 28 33 39 42 38 41 43 49 38 43
15 15 16 13 9 11 14 4 6 14 18 17 14 20 24 23 23 19 18 16 13 9 8 10 11 12 12 15 15 14 16 17 19 22 23 22 21 27 30 32 32 37 40 44 46 47 41 39 51
20 23 13 16 21 17 13 4 14 21 21 17 16 12 19 20 21 24 24 23 21 17 13 11 13 13 14 15 17 17 18 20 23 24 25 26 26 29 31 33 37 39 42 42 41 35 38 45 53
22 17 22 27 25 18 16 13 20 12 19 18 21 21 17 16 19 21 22 22 21 19 17 16 16 17 18 20 20 23 25 25 27 26 30 30 34 37 36 37 39 40 42 43 35 38 48 43 52
28 25 24 23 21 19 17 12 14 15 10 17 25 27 25 22 18 19 21 21 23 22 23 19 20 23 26 27 27 27 31 32 31 30 34 35 38 40 42 43 43 42 42 43 42 43 41 48 46
28 28 28 26 19 20 20 22 23 24 23 23 30 28 31 29 25 20 22 24 25 24 25 24 27 25 29 34 35 32 32 34 38 37 39 40 42 44 45 46 46 45 44 42 43 47 49 52 57

GFSSGP_500_spd_075.txt.gz
Wind_Speed
38 39 42 44 43 29 16 14 10 8 14 24 28 31 35 39 44 46 41 50 54 52 31 35 39 29 30 30 32 33 30 27 26 24 24 22 20 18 17 16 17 19 17 16 14 15 15 15 13
37 40 43 41 31 7 8 12 17 21 24 30 32 33 37 40 41 42 39 44 45 60 61 41 33 37 34 37 35 32 30 29 27 25 25 22 19 18 17 17 16 19 20 19 17 15 16 16 15
37 40 37 23 12 2 14 16 24 25 25 27 32 32 35 41 46 49 49 55 55 65 70 53 30 34 38 34 33 32 31 30 30 29 26 20 17 18 19 19 18 19 20 21 20 19 17 18 16
38 38 30 22 9 10 17 20 27 34 33 37 41 31 33 36 39 35 31 34 37 44 47 57 42 42 38 36 36 36 37 35 32 26 22 18 19 20 21 21 20 19 21 23 22 20 19 19 18
39 32 22 15 10 17 25 24 28 28 33 27 29 25 25 35 29 22 23 18 27 35 36 27 35 42 38 43 41 39 36 33 29 26 24 23 23 23 21 22 20 19 20 22 21 22 22 24 26
34 26 19 6 8 18 24 30 29 33 30 29 29 25 26 9 19 16 17 22 17 25 28 27 38 33 45 42 45 42 38 35 32 27 27 27 25 22 21 21 19 18 18 21 25 27 27 32 23
33 21 9 3 2 8 18 25 29 22 31 32 26 20 20 24 16 17 20 17 18 20 29 36 31 38 53 51 44 48 42 37 34 31 27 27 26 24 22 19 20 19 17 16 20 23 27 15 12
23 10 2 4 6 14 21 25 25 24 26 33 28 15 7 8 14 18 2 9 12 17 18 23 31 38 22 48 45 49 40 37 34 29 27 29 27 26 25 21 19 19 16 17 20 21 14 14 12
25 5 5 6 7 14 23 28 29 27 30 35 32 42 25 5 2 7 8 5 12 9 16 13 14 26 27 32 47 45 42 36 32 30 26 25 26 27 28 25 23 24 24 19 17 18 15 16 14
17 4 6 6 12 19 24 28 34 34 26 27 25 27 14 11 7 4 8 12 13 10 11 17 13 16 10 22 36 29 35 36 34 32 32 29 19 25 23 24 30 21 21 17 12 13 15 11 8
19 8 7 13 17 20 24 26 30 25 25 23 17 16 14 10 13 11 11 12 14 15 13 15 15 14 13 13 11 9 27 29 24 32 29 30 23 23 24 29 29 20 20 10 12 14 10 11 13
17 13 11 12 11 17 22 19 18 21 20 20 15 13 12 14 15 16 10 12 14 15 17 17 16 12 8 17 14 14 13 15 18 14 18 17 20 22 22 22 30 21 18 12 14 13 13 13 13
15 10 16 15 12 16 20 23 19 21 23 31 18 15 11 11 13 17 14 10 13 14 15 17 12 12 7 9 6 8 13 15 13 10 17 23 25 22 17 25 29 20 17 18 17 16 13 13 14
14 8 7 9 12 19 20 19 11 12 24 36 17 12 13 11 13 13 14 12 13 11 11 13 13 15 10 10 6 15 20 15 21 21 24 19 16 14 18 23 29 21 22 20 17 14 13 14 15
12 4 4 6 8 19 18 17 18 18 25 35 26 6 13 18 14 12 15 12 12 11 12 12 10 7 6 7 13 10 9 15 21 20 22 17 14 13 19 26 22 22 17 15 15 14 16 16 16
6 5 5 4 12 18 20 15 13 26 31 22 10 14 11 15 16 13 13 13 14 15 15 15 15 13 6 8 9 11 9 6 10 16 17 18 9 18 18 22 17 12 12 13 14 16 16 16 16
8 5 10 13 15 16 17 11 21 21 24 23 18 18 9 12 11 14 7 11 14 14 15 12 10 17 13 12 10 9 11 11 16 18 16 9 19 21 16 9 8 9 10 13 16 17 17 18 19
8 6 10 11 13 13 14 14 15 16 20 19 18 12 9 8 8 6 9 8 12 12 13 8 13 12 9 8 4 4 8 8 9 12 17 17 13 13 8 8 10 12 13 16 19 18 19 21 22
7 6 7 10 13 12 13 9 3 14 24 21 21 17 13 11 15 18 18 16 10 6 9 11 8 11 12 16 17 18 18 14 13 13 14 13 5 2 5 10 14 13 18 19 19 20 22 24 27
4 5 7 14 11 9 9 11 10 12 16 15 17 17 15 10 7 10 12 15 17 18 18 17 18 15 14 15 13 14 12 10 10 8 4 2 4 7 10 13 17 16 17 20 22 24 25 29 30
6 4 11 16 13 11 14 13 6 3 5 14 16 12 11 12 12 11 12 12 12 11 12 11 11 9 7 9 8 8 8 6 6 3 2 4 7 10 12 14 17 20 21 22 25 29 31 35 37
10 14 11 15 8 6 11 1 9 13 7 7 7 13 11 9 10 11 12 12 11 10 10 8 8 6 5 4 5 5 5 4 4 5 5 6 8 11 13 15 17 21 23 24 26 28 31 33 38
11 17 10 11 10 7 10 7 6 7 18 5 11 11 13 8 6 5 8 9 7 6 5 5 4 3 2 3 3 5 5 5 5 7 9 8 11 13 15 16 20 21 27 27 30 31 38 43 43
15 19 13 13 13 10 10 10 9 8 11 6 10 12 8 4 6 5 6 6 6 5 4 2 1 4 6 4 4 5 5 7 6 6 9 10 11 11 9 16 18 19 21 23 33 36 38 42 45
19 21 17 18 19 10 8 8 6 7 13 13 17 14 10 5 5 8 10 10 10 9 9 8 9 8 7 9 7 7 7 11 9 8 9 15 15 15 17 19 21 20 22 25 29 33 38 37 39
19 21 21 17 18 18 9 7 5 11 16 16 18 19 15 7 8 8 9 10 13 13 11 13 14 13 8 9 12 10 11 14 15 16 16 19 20 19 21 22 25 28 28 31 34 35 38 39 39
21 24 14 22 21 18 11 8 16 12 18 22 15 18 19 13 15 18 14 13 11 13 14 14 14 15 13 11 11 14 16 16 20 22 22 25 24 24 20 27 32 34 33 36 38 38 38 40 38
28 24 23 24 23 22 17 18 19 20 22 30 22 19 15 14 21 22 18 14 13 9 13 15 16 14 13 13 14 15 19 23 23 25 28 29 26 27 28 31 36 34 39 39 40 40 41 40 39
33 32 32 30 30 28 22 22 23 20 24 29 21 23 27 22 21 23 26 26 19 15 13 16 20 20 16 24 19 20 24 28 31 28 28 33 30 30 31 36 37 40 41 39 39 41 41 42 44
31 32 35 31 28 28 26 23 21 19 17 21 23 26 31 33 18 18 18 23 24 19 20 20 20 21 15 25 25 25 32 38 37 29 34 30 31 36 41 37 36 41 41 41 42 43 43 44 44

GFSSGP_500_spd_078.txt.gz
Wind_Speed
34 34 35 37 36 35 27 15 17 16 13 14 17 20 20 24 28 32 38 41 44 42 43 47 51 39 46 43 40 30 29 27 28 27 26 23 21 20 15 16 14 20 18 16 17 15 14 13 13
32 32 36 36 33 27 14 16 18 16 13 16 20 26 31 31 32 38 40 43 45 42 43 52 53 43 48 43 38 32 31 29 29 28 26 23 21 17 16 18 18 18 19 19 19 17 16 14 14
30 33 35 35 25 13 14 16 21 18 21 25 21 29 29 33 38 40 42 43 45 47 49 53 53 54 39 35 32 35 36 32 31 29 27 25 22 19 18 19 20 19 19 20 21 20 19 15 15
28 31 32 25 13 16 15 13 18 26 26 24 28 30 27 30 38 41 43 49 48 52 50 53 53 53 49 41 41 41 37 35 31 29 28 23 19 17 19 20 21 20 20 21 22 22 20 17 18
28 31 30 18 19 17 14 15 17 23 27 25 27 22 28 35 30 35 33 39 45 47 49 50 51 44 53 58 48 43 41 36 34 32 28 24 21 22 22 23 23 22 20 19 21 23 22 22 22
27 30 26 15 16 14 14 20 19 24 24 24 26 25 31 28 28 18 21 22 34 31 20 28 29 34 50 45 42 44 40 39 39 36 29 27 23 23 23 22 20 22 19 20 21 23 23 21 24
27 29 19 9 10 14 9 19 24 28 23 25 25 24 29 40 33 19 19 17 28 21 12 19 16 26 51 63 59 48 48 42 43 31 27 26 26 24 22 22 23 20 22 20 17 17 17 15 16
26 30 12 9 12 11 12 21 27 28 24 23 27 20 24 25 15 13 10 16 12 10 13 22 13 31 48 52 61 57 46 48 40 33 32 30 27 24 23 24 24 23 25 23 20 17 16 15 8
25 26 13 14 14 10 15 22 27 31 25 22 22 17 15 12 12 17 11 5 7 3 6 14 12 25 8 79 62 49 50 44 42 38 31 30 24 25 24 25 24 26 27 21 24 22 17 14 14
23 26 13 13 16 12 18 22 28 33 29 20 22 20 15 9 9 8 13 3 4 8 3 5 7 14 33 40 53 49 51 53 44 34 33 30 24 20 19 23 26 24 25 22 24 21 15 13 14
20 22 14 11 9 7 12 17 25 24 21 19 16 18 18 13 10 7 12 11 7 5 6 4 8 8 11 17 24 44 42 42 37 35 36 28 28 27 17 17 20 23 21 25 20 20 14 15 14
21 21 14 7 7 12 15 22 22 18 16 16 19 30 19 15 9 7 9 10 10 7 6 6 7 10 4 16 15 21 18 32 37 39 34 29 26 29 18 22 19 22 24 25 22 20 16 17 16
21 21 14 3 4 6 8 15 18 17 22 21 28 27 16 18 8 7 2 6 10 9 7 6 9 7 1 3 16 23 22 16 23 20 23 21 17 20 22 19 19 18 21 23 20 20 19 17 12
20 15 8 2 4 8 11 14 21 20 23 22 27 24 13 13 9 6 7 4 8 8 11 7 8 5 4 6 9 8 10 19 15 17 11 14 17 16 18 15 13 13 18 23 22 22 19 15 13
14 12 4 4 5 8 11 9 14 20 22 19 20 14 11 14 8 7 4 7 8 7 10 9 10 10 11 6 15 9 10 14 15 22 22 19 19 19 19 14 12 15 23 23 24 21 17 14 15
12 9 4 2 7 11 12 11 13 16 22 20 17 10 16 18 9 9 4 8 13 12 12 12 11 17 10 7 4 11 12 8 11 21 20 16 16 20 19 13 13 19 22 23 19 17 16 16 16
11 9 7 9 4 8 11 8 6 17 20 16 15 10 11 13 13 11 5 8 13 15 14 11 11 16 17 8 8 6 16 11 12 16 18 16 23 24 18 11 16 22 16 11 14 15 17 18 16
15 9 11 9 4 7 9 4 5 14 19 15 13 13 12 10 8 9 7 7 9 11 10 8 9 7 11 9 10 11 11 12 14 16 20 21 24 19 14 16 14 11 9 11 15 18 19 18 19
16 10 12 8 5 10 6 5 9 9 10 13 10 13 16 14 12 13 12 14 5 5 10 12 11 15 13 11 9 7 9 11 9 9 14 17 16 16 14 12 14 12 11 14 18 21 21 21 23
17 15 12 5 6 10 12 5 7 5 6 10 11 11 11 11 12 9 9 13 16 18 15 14 14 14 12 13 14 13 12 14 15 15 14 12 11 9 8 11 13 13 15 18 20 23 25 24 24
16 18 10 4 10 11 17 9 4 1 3 7 11 11 7 9 11 12 10 9 11 15 18 18 18 15 14 13 13 11 11 12 12 11 10 9 9 9 10 13 14 16 16 20 21 24 26 28 27
18 22 8 11 11 10 14 8 5 5 4 5 8 9 6 3 10 10 8 8 7 9 10 10 11 12 13 12 10 10 9 9 7 5 5 5 8 10 11 13 14 17 17 18 22 25 25 29 31
17 22 16 17 15 13 10 13 11 7 4 6 3 2 4 1 1 4 5 5 2 4 6 7 9 9 8 7 8 8 8 6 6 6 7 9 9 8 10 11 13 15 15 19 22 24 27 32 31
25 23 21 17 17 14 16 17 9 8 6 3 3 4 4 3 2 1 2 3 5 3 1 4 4 4 4 4 6 6 6 9 7 7 8 10 11 10 13 11 14 14 15 15 15 19 23 26 31
29 25 24 23 21 13 19 18 13 13 8 3 4 3 7 5 4 4 8 6 4 5 4 5 6 6 6 8 8 8 9 9 10 12 15 14 15 17 18 16 20 18 17 17 19 22 26 30 32
31 27 24 27 21 19 21 16 23 17 14 5 6 4 3 6 4 1 5 9 9 9 8 7 7 8 10 10 10 12 12 13 15 15 18 20 19 20 20 23 23 23 20 24 25 26 29 32 34
32 35 20 27 27 25 24 18 24 18 16 11 13 14 9 6 11 10 6 7 9 12 11 10 10 9 9 11 13 15 17 16 17 20 19 21 23 26 27 28 26 27 26 27 27 32 35 36 38
38 30 29 30 33 31 23 23 23 20 16 19 21 18 14 15 15 14 16 14 12 11 12 13 15 13 12 13 15 18 21 21 22 22 23 26 30 31 30 32 26 24 28 31 30 34 36 38 39
41 39 36 31 33 31 30 28 24 23 24 27 22 21 19 24 23 22 19 18 20 15 14 15 17 16 16 19 19 19 21 24 27 26 29 36 36 37 37 32 25 31 32 34 35 38 38 40 42
43 41 36 36 37 31 31 29 26 24 25 24 27 28 27 27 24 15 17 11 10 14 14 14 20 23 17 16 18 20 22 25 32 36 31 26 37 38 33 34 31 32 28 36 38 40 42 44 44